GEFSSGP_prec_meanprecacc_342.txt.gz
Total_Precipitation_Accumulation
2.96 2.95 3.39 4.24 4.93 4.46 3.96 3.19 2.73 2.57 2.17 1.72 1.32 1.28 1.59 2.07 2.66 3.19 3.47 3.21 2.23 1.77 1.89 2.82 3.66 3.34 2.85 2.44 2.22 2.24 2.24 2.38 2.38 2.39 2.21 2.04 1.90 1.83 1.68 1.57 1.64 1.60 1.48 1.37 1.31 1.46 1.54 1.50 1.63
2.26 3.12 3.99 4.92 4.61 3.94 3.69 3.22 2.92 2.42 1.76 1.40 1.03 0.92 1.03 1.14 1.22 1.95 3.27 3.11 1.97 1.62 1.72 2.13 3.02 2.91 2.50 2.25 2.21 2.33 2.36 2.49 2.46 2.35 2.13 1.98 1.95 1.87 1.72 1.70 1.84 1.68 1.57 1.44 1.37 1.51 1.65 1.56 1.62
2.39 3.52 4.51 4.80 3.73 3.43 3.56 3.30 2.70 1.98 1.44 1.31 1.10 0.94 1.16 1.48 1.55 2.21 3.02 2.33 1.67 1.56 1.71 2.34 2.98 2.73 2.41 2.20 2.39 2.59 2.61 2.58 2.40 2.20 2.00 1.96 1.98 1.92 1.86 1.91 2.00 1.78 1.66 1.50 1.40 1.50 1.55 1.51 1.51
2.76 3.93 4.13 3.87 3.23 2.82 2.95 2.91 2.28 1.85 1.41 1.01 1.00 1.03 1.11 1.54 1.61 1.94 1.99 1.65 1.44 1.58 1.74 2.24 2.87 2.68 2.46 2.29 2.53 2.65 2.68 2.73 2.60 2.33 2.07 1.98 1.93 1.91 1.86 1.93 1.87 1.82 1.77 1.56 1.46 1.50 1.54 1.52 1.51
3.23 4.13 4.00 3.44 3.05 2.73 2.44 2.06 1.82 1.78 1.46 1.09 0.93 1.21 1.62 2.01 1.76 1.64 1.58 1.49 1.33 1.44 1.49 1.79 2.54 2.63 2.46 2.38 2.63 2.70 2.76 2.93 2.84 2.55 2.37 2.14 1.96 1.93 1.93 1.99 1.85 1.79 1.80 1.78 1.69 1.63 1.61 1.58 1.59
3.50 3.60 3.86 3.40 3.03 2.83 2.67 1.97 1.73 1.72 1.37 1.07 1.00 1.30 2.10 2.50 2.08 1.76 1.54 1.61 1.54 1.51 1.43 1.46 2.17 2.47 2.47 2.51 2.58 2.56 2.58 2.68 2.72 2.50 2.31 2.08 1.94 1.92 2.06 2.14 1.97 1.93 1.77 1.68 1.75 1.78 1.79 1.81 1.77
3.42 3.52 3.56 2.96 2.94 3.15 2.74 1.92 1.77 1.68 1.59 1.28 0.94 1.46 2.24 2.70 2.27 1.79 1.62 1.64 1.73 1.64 1.57 1.49 1.67 2.03 2.38 2.46 2.36 2.36 2.34 2.35 2.47 2.34 2.22 2.03 1.96 1.94 2.04 2.08 2.00 2.03 2.00 1.96 2.04 2.17 2.13 2.05 2.06
2.53 2.87 2.93 2.86 2.97 3.18 2.36 1.79 1.47 1.44 1.42 1.07 0.88 1.45 2.17 2.20 1.95 1.79 1.81 1.94 2.07 1.84 1.69 1.52 1.49 1.57 1.67 1.91 2.10 2.28 2.33 2.30 2.36 2.18 1.99 1.87 1.84 1.88 2.01 2.00 1.98 2.13 2.20 2.24 2.42 2.57 2.48 2.56 2.41
2.29 3.01 3.32 3.31 3.02 2.58 1.69 1.56 1.34 1.12 1.18 1.03 0.84 0.94 1.26 1.45 1.58 1.76 1.79 1.86 1.93 1.66 1.52 1.56 1.56 1.57 1.63 1.60 1.67 2.01 2.15 2.18 2.05 1.97 1.84 1.69 1.44 1.39 1.59 1.74 2.16 2.48 2.69 2.63 2.63 2.51 2.35 2.25 2.06
2.35 3.14 3.13 2.51 2.18 1.92 1.41 1.32 1.19 1.21 1.26 1.18 0.99 0.97 1.11 1.30 1.60 1.75 1.64 1.62 1.52 1.40 1.32 1.37 1.38 1.51 1.56 1.42 1.64 1.95 1.78 1.68 1.45 1.47 1.34 1.40 1.35 1.32 1.15 1.38 1.93 2.23 2.35 2.37 2.38 2.29 2.02 1.70 1.35
1.86 2.38 2.14 1.91 1.67 1.42 1.27 1.28 1.13 1.19 1.39 1.25 1.06 1.13 1.41 1.62 1.74 1.57 1.45 1.44 1.25 1.18 1.12 1.05 1.11 1.17 1.30 1.47 1.71 2.00 2.06 1.87 1.64 1.40 1.32 1.36 1.29 1.21 1.09 1.11 1.29 1.46 1.54 1.44 1.48 1.49 1.37 1.27 1.17
1.59 1.54 1.52 1.72 1.47 1.41 1.27 1.21 1.21 1.19 1.24 1.10 0.93 1.00 1.23 1.47 1.66 1.51 1.35 1.29 1.05 1.00 1.06 0.87 0.78 0.92 1.10 1.20 1.33 1.61 1.68 1.60 1.49 1.29 1.20 1.29 1.33 1.22 1.17 1.17 1.21 1.23 1.21 1.25 1.26 1.35 1.32 1.14 1.05
1.94 1.65 1.40 1.37 1.37 1.44 1.25 1.18 1.16 1.14 1.03 0.92 0.87 1.05 1.20 1.26 1.36 1.30 1.26 1.22 1.11 1.05 1.04 0.92 0.80 0.77 0.85 0.91 1.01 1.16 1.31 1.38 1.40 1.37 1.18 1.19 1.32 1.29 1.26 1.20 1.25 1.14 1.05 1.11 1.20 1.25 1.30 1.21 1.06
1.84 1.59 1.55 1.53 1.42 1.39 1.38 1.14 1.12 1.34 1.03 0.91 0.98 1.08 1.09 1.07 1.08 1.19 1.19 1.18 1.13 1.07 1.09 1.01 0.88 0.84 0.86 0.84 0.84 0.84 0.97 1.12 1.23 1.27 1.19 1.20 1.30 1.31 1.37 1.32 1.25 1.18 1.09 1.12 1.30 1.28 1.30 1.29 1.22
1.75 1.90 1.80 1.69 1.55 1.48 1.40 1.53 1.42 1.29 1.07 1.01 1.08 1.03 1.00 0.98 0.97 1.08 1.07 1.01 1.02 1.11 1.13 1.11 1.03 1.01 1.00 0.95 0.91 0.77 0.81 0.89 1.04 1.19 1.20 1.26 1.22 1.16 1.24 1.26 1.20 1.18 1.19 1.21 1.26 1.31 1.39 1.32 1.23
1.95 2.20 2.37 1.99 1.68 1.43 1.45 1.96 1.78 1.41 1.15 1.16 1.12 1.03 0.99 0.97 0.93 0.95 0.94 0.96 0.94 1.01 1.16 1.23 1.13 1.14 1.14 1.13 1.09 1.00 1.01 1.09 1.16 1.33 1.30 1.24 1.27 1.24 1.23 1.26 1.25 1.27 1.31 1.30 1.34 1.42 1.42 1.39 1.37
2.09 2.13 2.03 1.89 1.54 1.29 1.32 1.69 1.67 1.47 1.20 1.08 1.06 1.00 0.91 0.83 0.82 0.79 0.77 0.79 0.86 0.91 1.01 1.12 1.21 1.26 1.23 1.22 1.29 1.37 1.39 1.39 1.40 1.48 1.39 1.27 1.27 1.32 1.45 1.48 1.47 1.43 1.46 1.46 1.41 1.43 1.36 1.37 1.38
1.97 1.64 1.44 1.42 1.34 1.20 1.15 1.28 1.32 1.33 1.20 1.01 0.90 0.87 0.88 0.79 0.75 0.70 0.66 0.67 0.77 0.84 0.91 1.03 1.15 1.36 1.44 1.43 1.40 1.54 1.57 1.60 1.68 1.73 1.56 1.43 1.47 1.59 1.77 1.84 1.74 1.70 1.69 1.68 1.62 1.66 1.55 1.44 1.47
1.42 1.37 1.26 1.08 1.05 1.12 1.05 1.05 1.08 1.08 1.07 0.96 0.83 0.70 0.68 0.67 0.63 0.61 0.57 0.59 0.64 0.72 0.78 0.89 1.00 1.20 1.30 1.34 1.45 1.65 1.81 1.93 2.02 2.06 1.92 1.79 1.76 1.91 2.06 1.97 2.04 2.05 1.92 1.91 1.96 2.01 1.97 1.78 1.64
1.26 1.29 1.14 0.98 0.84 0.87 0.92 0.95 0.95 0.89 0.89 0.79 0.69 0.63 0.55 0.50 0.48 0.43 0.39 0.42 0.46 0.47 0.53 0.64 0.79 0.89 1.04 1.24 1.50 1.71 1.98 2.02 2.08 2.14 2.13 2.04 1.98 2.12 2.16 2.23 2.32 2.34 2.35 2.28 2.17 2.28 2.44 2.17 1.93
1.07 1.13 1.03 0.96 0.85 0.78 0.78 0.95 0.88 0.81 0.77 0.69 0.56 0.49 0.42 0.35 0.31 0.26 0.26 0.33 0.40 0.39 0.43 0.53 0.66 0.82 1.05 1.31 1.67 1.96 2.24 2.34 2.39 2.33 2.33 2.29 2.29 2.33 2.37 2.42 2.48 2.49 2.36 2.35 2.46 2.59 2.94 2.74 2.36
1.05 0.77 0.73 0.75 0.92 0.97 0.80 1.10 0.82 0.67 0.66 0.61 0.52 0.48 0.41 0.34 0.30 0.28 0.26 0.28 0.31 0.36 0.43 0.57 0.77 1.00 1.28 1.61 1.96 2.24 2.54 2.70 2.54 2.51 2.50 2.44 2.33 2.32 2.42 2.41 2.39 2.35 2.30 2.37 2.45 2.51 2.94 3.15 2.85
0.74 0.61 0.73 0.79 0.83 0.80 0.62 0.80 0.71 0.56 0.62 0.56 0.48 0.46 0.49 0.47 0.37 0.35 0.36 0.37 0.41 0.48 0.58 0.77 1.05 1.36 1.65 1.90 2.08 2.33 2.47 2.50 2.47 2.41 2.40 2.30 2.25 2.22 2.23 2.21 2.30 2.30 2.33 2.39 2.57 2.70 2.98 3.03 3.03
0.56 0.67 0.82 0.85 0.91 0.97 0.54 0.64 0.75 0.57 0.52 0.51 0.46 0.41 0.40 0.45 0.41 0.41 0.45 0.53 0.60 0.68 0.85 1.05 1.23 1.53 1.72 1.87 2.00 2.15 2.30 2.35 2.33 2.32 2.35 2.32 2.28 2.17 2.08 2.03 2.10 2.22 2.35 2.40 2.49 2.66 2.93 3.05 3.15
0.55 0.97 1.34 1.35 1.28 0.96 0.46 0.66 0.77 0.57 0.44 0.39 0.41 0.40 0.37 0.41 0.47 0.49 0.61 0.77 0.85 0.89 1.02 1.20 1.28 1.48 1.59 1.65 1.78 1.93 1.95 1.97 2.00 2.01 2.01 1.92 1.87 1.85 1.90 1.95 2.02 2.16 2.25 2.32 2.44 2.58 2.65 2.78 3.03
0.50 0.80 1.34 1.45 1.24 0.90 0.63 0.92 0.84 0.59 0.45 0.41 0.42 0.42 0.45 0.54 0.65 0.76 0.90 0.99 1.07 1.11 1.10 1.16 1.30 1.34 1.35 1.42 1.43 1.52 1.59 1.64 1.68 1.65 1.65 1.69 1.73 1.75 1.69 1.72 1.79 2.01 2.20 2.28 2.38 2.39 2.39 2.45 2.63
0.53 0.58 0.65 0.94 0.88 0.92 0.87 1.06 0.98 0.61 0.49 0.48 0.48 0.49 0.54 0.69 0.90 1.15 1.35 1.45 1.52 1.46 1.29 1.17 1.19 1.18 1.16 1.27 1.32 1.35 1.41 1.45 1.47 1.47 1.39 1.50 1.53 1.53 1.48 1.52 1.54 1.66 1.88 2.12 2.27 2.23 2.16 2.13 2.29
0.44 0.59 0.76 1.13 1.31 1.27 1.15 1.31 1.28 0.84 0.66 0.58 0.61 0.68 0.80 1.00 1.34 1.63 1.90 2.08 2.05 1.83 1.57 1.34 1.16 1.08 1.06 1.12 1.21 1.28 1.31 1.31 1.27 1.31 1.23 1.27 1.37 1.36 1.29 1.30 1.41 1.58 1.68 1.85 2.05 2.13 2.08 2.08 2.17
0.48 0.67 0.84 1.08 1.13 1.43 1.62 1.63 1.33 1.11 0.92 0.85 0.94 1.13 1.30 1.56 1.79 1.98 2.15 2.28 2.08 1.88 1.60 1.33 1.15 1.14 1.17 1.20 1.24 1.25 1.21 1.19 1.16 1.12 1.08 1.13 1.21 1.20 1.20 1.34 1.42 1.49 1.57 1.75 2.00 2.15 2.15 2.08 2.09
0.61 0.87 1.12 1.53 1.42 1.33 1.65 1.73 1.24 1.06 1.03 1.05 1.15 1.24 1.38 1.51 1.54 1.66 1.76 1.78 1.82 1.77 1.57 1.36 1.24 1.23 1.28 1.31 1.34 1.29 1.22 1.17 1.14 1.09 1.01 0.99 0.96 0.94 1.06 1.20 1.24 1.28 1.32 1.51 1.80 2.00 2.05 2.02 1.91

GEFSSGP_prec_meanprecacc_348.txt.gz
Total_Precipitation_Accumulation
2.97 2.96 3.40 4.27 5.04 4.58 4.05 3.24 2.74 2.59 2.19 1.73 1.32 1.28 1.59 2.09 2.70 3.26 3.50 3.22 2.23 1.78 1.92 2.89 3.73 3.39 2.89 2.48 2.25 2.27 2.28 2.42 2.45 2.44 2.26 2.09 1.95 1.89 1.75 1.63 1.69 1.64 1.51 1.41 1.35 1.50 1.57 1.53 1.66
2.27 3.13 4.00 4.96 4.70 4.05 3.79 3.25 2.95 2.43 1.77 1.41 1.03 0.92 1.03 1.15 1.22 1.96 3.29 3.12 1.98 1.64 1.78 2.19 3.07 2.97 2.54 2.29 2.24 2.36 2.40 2.53 2.51 2.39 2.18 2.04 2.00 1.94 1.79 1.76 1.89 1.71 1.61 1.48 1.41 1.55 1.68 1.60 1.66
2.39 3.52 4.52 4.85 3.81 3.52 3.64 3.34 2.72 1.98 1.44 1.32 1.11 0.94 1.17 1.49 1.56 2.23 3.03 2.33 1.67 1.59 1.76 2.40 3.06 2.81 2.45 2.25 2.43 2.63 2.63 2.62 2.45 2.25 2.07 2.02 2.04 2.00 1.94 1.97 2.06 1.82 1.70 1.54 1.45 1.54 1.59 1.55 1.56
2.76 3.94 4.15 3.91 3.30 2.87 2.98 2.93 2.29 1.86 1.42 1.03 1.02 1.06 1.13 1.54 1.61 1.95 1.99 1.65 1.45 1.61 1.79 2.34 2.97 2.74 2.50 2.32 2.58 2.70 2.72 2.80 2.67 2.39 2.13 2.04 1.98 1.97 1.94 2.01 1.93 1.87 1.82 1.60 1.49 1.54 1.59 1.57 1.55
3.25 4.16 4.04 3.49 3.09 2.75 2.45 2.07 1.84 1.80 1.47 1.10 0.95 1.24 1.65 2.02 1.77 1.64 1.58 1.49 1.34 1.47 1.54 1.85 2.62 2.70 2.51 2.43 2.68 2.78 2.83 3.01 2.91 2.61 2.41 2.18 2.01 1.99 1.98 2.04 1.89 1.84 1.86 1.83 1.72 1.67 1.65 1.64 1.65
3.53 3.64 3.92 3.45 3.06 2.85 2.69 1.98 1.75 1.75 1.38 1.09 1.02 1.33 2.13 2.52 2.09 1.77 1.55 1.62 1.55 1.54 1.47 1.53 2.26 2.57 2.54 2.58 2.66 2.65 2.66 2.77 2.79 2.54 2.34 2.11 1.98 1.96 2.10 2.18 2.01 1.97 1.83 1.73 1.79 1.82 1.84 1.87 1.84
3.48 3.58 3.63 3.01 2.98 3.18 2.76 1.93 1.78 1.70 1.61 1.30 0.96 1.49 2.27 2.75 2.30 1.81 1.63 1.66 1.75 1.67 1.61 1.54 1.72 2.08 2.43 2.51 2.43 2.42 2.40 2.40 2.50 2.36 2.24 2.05 1.98 1.96 2.07 2.12 2.03 2.06 2.04 2.00 2.08 2.22 2.18 2.10 2.13
2.56 2.92 2.99 2.90 3.02 3.21 2.38 1.80 1.47 1.45 1.44 1.08 0.89 1.47 2.21 2.23 1.97 1.81 1.82 1.95 2.08 1.85 1.71 1.55 1.52 1.60 1.71 1.95 2.14 2.32 2.37 2.32 2.38 2.19 2.00 1.89 1.86 1.90 2.04 2.03 2.01 2.15 2.22 2.27 2.45 2.61 2.52 2.61 2.52
2.31 3.07 3.39 3.36 3.06 2.60 1.71 1.57 1.34 1.12 1.19 1.03 0.84 0.95 1.28 1.46 1.59 1.78 1.82 1.89 1.97 1.69 1.54 1.57 1.57 1.58 1.65 1.62 1.68 2.01 2.16 2.19 2.06 1.97 1.85 1.71 1.47 1.41 1.62 1.76 2.19 2.51 2.71 2.65 2.65 2.54 2.40 2.29 2.14
2.37 3.22 3.19 2.53 2.20 1.93 1.42 1.32 1.19 1.21 1.26 1.19 0.99 0.97 1.11 1.32 1.63 1.78 1.67 1.67 1.58 1.46 1.37 1.39 1.39 1.52 1.57 1.43 1.66 1.96 1.79 1.69 1.46 1.47 1.35 1.42 1.37 1.34 1.17 1.40 1.95 2.25 2.37 2.38 2.39 2.32 2.06 1.74 1.39
1.87 2.42 2.17 1.91 1.67 1.42 1.28 1.29 1.13 1.20 1.41 1.26 1.07 1.13 1.42 1.65 1.79 1.60 1.48 1.47 1.30 1.26 1.20 1.09 1.12 1.18 1.33 1.50 1.74 2.03 2.09 1.88 1.65 1.40 1.32 1.37 1.30 1.22 1.11 1.13 1.32 1.48 1.56 1.46 1.50 1.51 1.39 1.31 1.22
1.59 1.55 1.53 1.72 1.47 1.41 1.28 1.21 1.22 1.20 1.25 1.10 0.93 1.00 1.24 1.50 1.71 1.55 1.39 1.33 1.09 1.06 1.13 0.91 0.81 0.95 1.13 1.22 1.35 1.63 1.70 1.61 1.51 1.30 1.20 1.30 1.34 1.23 1.19 1.19 1.24 1.26 1.23 1.26 1.28 1.37 1.33 1.16 1.08
1.94 1.65 1.40 1.37 1.37 1.44 1.25 1.18 1.17 1.15 1.03 0.92 0.87 1.05 1.20 1.27 1.40 1.34 1.30 1.26 1.16 1.08 1.09 0.96 0.82 0.79 0.87 0.93 1.04 1.17 1.33 1.39 1.41 1.38 1.18 1.19 1.32 1.29 1.26 1.21 1.27 1.15 1.05 1.11 1.20 1.27 1.32 1.23 1.09
1.84 1.59 1.55 1.53 1.42 1.39 1.38 1.14 1.13 1.35 1.03 0.91 0.98 1.08 1.09 1.07 1.09 1.22 1.22 1.22 1.17 1.09 1.12 1.03 0.89 0.86 0.88 0.85 0.85 0.85 0.98 1.13 1.23 1.28 1.19 1.20 1.30 1.32 1.37 1.32 1.25 1.19 1.10 1.12 1.30 1.29 1.32 1.31 1.25
1.75 1.90 1.81 1.69 1.56 1.48 1.40 1.54 1.44 1.30 1.07 1.01 1.08 1.03 1.00 0.98 0.98 1.10 1.09 1.04 1.06 1.13 1.15 1.12 1.04 1.03 1.02 0.96 0.92 0.79 0.82 0.90 1.04 1.19 1.20 1.26 1.23 1.17 1.24 1.27 1.21 1.18 1.19 1.21 1.26 1.32 1.40 1.33 1.24
1.97 2.23 2.39 2.00 1.68 1.43 1.45 1.99 1.80 1.42 1.15 1.16 1.13 1.04 1.00 0.97 0.94 0.96 0.96 0.98 0.97 1.03 1.17 1.25 1.15 1.15 1.15 1.14 1.10 1.01 1.02 1.10 1.16 1.33 1.30 1.25 1.28 1.24 1.23 1.27 1.26 1.28 1.31 1.31 1.35 1.43 1.44 1.41 1.38
2.11 2.16 2.05 1.90 1.54 1.29 1.33 1.70 1.69 1.47 1.20 1.09 1.07 1.02 0.92 0.83 0.83 0.80 0.78 0.81 0.88 0.93 1.03 1.15 1.25 1.31 1.27 1.26 1.33 1.39 1.41 1.40 1.41 1.49 1.40 1.28 1.28 1.33 1.45 1.48 1.48 1.43 1.46 1.47 1.42 1.45 1.38 1.38 1.39
1.98 1.66 1.46 1.43 1.34 1.21 1.15 1.28 1.33 1.35 1.22 1.03 0.91 0.88 0.89 0.79 0.75 0.71 0.68 0.68 0.78 0.86 0.92 1.05 1.19 1.41 1.48 1.47 1.44 1.56 1.59 1.63 1.71 1.77 1.59 1.46 1.49 1.60 1.78 1.85 1.75 1.71 1.70 1.69 1.63 1.67 1.57 1.46 1.49
1.42 1.38 1.26 1.09 1.05 1.12 1.06 1.06 1.09 1.10 1.09 0.97 0.83 0.71 0.69 0.68 0.64 0.62 0.59 0.60 0.65 0.72 0.79 0.90 1.03 1.23 1.33 1.37 1.47 1.68 1.84 1.97 2.06 2.09 1.93 1.81 1.78 1.92 2.06 1.97 2.05 2.06 1.93 1.92 1.98 2.02 1.99 1.80 1.65
1.26 1.29 1.14 0.99 0.84 0.87 0.92 0.96 0.97 0.92 0.91 0.80 0.69 0.63 0.55 0.50 0.48 0.44 0.40 0.43 0.47 0.48 0.54 0.65 0.81 0.91 1.06 1.27 1.53 1.73 2.00 2.05 2.11 2.16 2.15 2.07 2.00 2.13 2.16 2.23 2.33 2.35 2.36 2.29 2.18 2.30 2.46 2.18 1.94
1.08 1.13 1.03 0.97 0.85 0.79 0.78 0.96 0.90 0.82 0.78 0.70 0.56 0.49 0.42 0.35 0.31 0.26 0.27 0.34 0.40 0.40 0.43 0.53 0.67 0.83 1.07 1.32 1.68 1.97 2.26 2.36 2.42 2.37 2.37 2.35 2.33 2.35 2.37 2.42 2.49 2.50 2.36 2.36 2.47 2.60 2.95 2.75 2.37
1.06 0.77 0.73 0.75 0.93 0.98 0.81 1.12 0.83 0.68 0.66 0.61 0.52 0.48 0.41 0.34 0.31 0.29 0.27 0.28 0.32 0.36 0.44 0.58 0.78 1.02 1.30 1.62 1.98 2.25 2.55 2.72 2.56 2.54 2.53 2.47 2.35 2.33 2.42 2.42 2.39 2.36 2.31 2.38 2.45 2.51 2.94 3.16 2.87
0.74 0.61 0.73 0.79 0.84 0.81 0.62 0.81 0.73 0.57 0.63 0.57 0.49 0.47 0.49 0.47 0.38 0.36 0.37 0.37 0.41 0.49 0.59 0.78 1.05 1.37 1.67 1.93 2.10 2.34 2.48 2.51 2.48 2.42 2.41 2.31 2.27 2.23 2.23 2.22 2.31 2.31 2.33 2.40 2.58 2.71 2.99 3.04 3.05
0.56 0.68 0.82 0.85 0.91 0.98 0.55 0.65 0.76 0.58 0.53 0.52 0.46 0.41 0.40 0.45 0.41 0.41 0.45 0.53 0.61 0.68 0.86 1.06 1.24 1.54 1.73 1.88 2.02 2.17 2.31 2.36 2.34 2.32 2.36 2.34 2.29 2.18 2.09 2.03 2.11 2.23 2.36 2.41 2.50 2.68 2.95 3.09 3.19
0.56 0.99 1.36 1.37 1.29 0.96 0.47 0.67 0.79 0.59 0.46 0.40 0.41 0.40 0.37 0.41 0.47 0.49 0.61 0.78 0.85 0.89 1.02 1.20 1.28 1.48 1.59 1.66 1.79 1.94 1.96 1.99 2.01 2.01 2.02 1.93 1.88 1.86 1.90 1.95 2.03 2.17 2.26 2.33 2.45 2.59 2.67 2.81 3.08
0.51 0.81 1.36 1.46 1.25 0.90 0.64 0.93 0.85 0.61 0.47 0.42 0.42 0.42 0.45 0.54 0.65 0.76 0.90 0.99 1.07 1.11 1.10 1.16 1.31 1.34 1.35 1.42 1.44 1.53 1.60 1.65 1.70 1.67 1.67 1.71 1.74 1.76 1.70 1.73 1.80 2.01 2.21 2.28 2.39 2.40 2.40 2.47 2.67
0.53 0.59 0.66 0.96 0.89 0.93 0.88 1.07 0.99 0.62 0.50 0.48 0.48 0.49 0.55 0.69 0.90 1.15 1.35 1.45 1.52 1.46 1.30 1.17 1.19 1.18 1.17 1.27 1.33 1.36 1.41 1.45 1.48 1.48 1.40 1.51 1.54 1.54 1.48 1.53 1.55 1.67 1.88 2.12 2.27 2.24 2.17 2.15 2.32
0.44 0.60 0.77 1.16 1.33 1.29 1.16 1.32 1.29 0.85 0.66 0.59 0.62 0.69 0.80 1.00 1.34 1.64 1.91 2.08 2.05 1.83 1.58 1.35 1.17 1.09 1.07 1.13 1.21 1.29 1.31 1.32 1.28 1.32 1.24 1.28 1.37 1.37 1.30 1.31 1.42 1.59 1.68 1.85 2.06 2.14 2.08 2.09 2.19
0.49 0.68 0.85 1.11 1.15 1.45 1.64 1.65 1.35 1.12 0.92 0.85 0.95 1.13 1.30 1.56 1.79 1.98 2.16 2.29 2.10 1.89 1.60 1.34 1.16 1.15 1.17 1.21 1.25 1.26 1.22 1.20 1.17 1.13 1.08 1.13 1.21 1.21 1.21 1.35 1.43 1.50 1.58 1.76 2.00 2.15 2.16 2.09 2.10
0.62 0.88 1.14 1.56 1.44 1.35 1.67 1.76 1.26 1.07 1.03 1.05 1.16 1.25 1.38 1.51 1.54 1.66 1.77 1.79 1.83 1.78 1.58 1.37 1.24 1.23 1.28 1.31 1.35 1.30 1.24 1.18 1.15 1.10 1.02 1.00 0.97 0.95 1.07 1.20 1.25 1.29 1.32 1.51 1.81 2.01 2.06 2.03 1.92

GEFSSGP_prec_meanprecacc_354.txt.gz
Total_Precipitation_Accumulation
2.99 2.98 3.43 4.32 5.12 4.65 4.12 3.32 2.79 2.62 2.22 1.74 1.33 1.28 1.60 2.11 2.73 3.29 3.53 3.25 2.25 1.80 1.95 2.93 3.78 3.43 2.94 2.51 2.27 2.29 2.31 2.45 2.48 2.47 2.29 2.13 1.98 1.91 1.77 1.65 1.72 1.66 1.53 1.43 1.37 1.52 1.59 1.54 1.68
2.28 3.15 4.04 5.04 4.78 4.12 3.85 3.31 2.99 2.45 1.77 1.41 1.03 0.92 1.04 1.17 1.24 1.98 3.32 3.14 1.98 1.64 1.79 2.22 3.11 3.01 2.57 2.33 2.27 2.39 2.42 2.55 2.54 2.42 2.24 2.09 2.04 1.98 1.82 1.78 1.91 1.72 1.63 1.50 1.43 1.56 1.70 1.62 1.68
2.40 3.54 4.57 4.93 3.88 3.61 3.72 3.39 2.74 1.99 1.45 1.33 1.11 0.94 1.18 1.53 1.58 2.25 3.05 2.34 1.68 1.59 1.77 2.42 3.10 2.85 2.49 2.28 2.45 2.65 2.65 2.64 2.47 2.28 2.11 2.07 2.08 2.03 1.96 2.00 2.08 1.84 1.72 1.56 1.46 1.56 1.61 1.57 1.59
2.77 3.96 4.21 3.98 3.36 2.94 3.03 2.95 2.30 1.86 1.42 1.03 1.02 1.07 1.15 1.58 1.64 1.97 2.01 1.66 1.45 1.62 1.81 2.38 3.03 2.80 2.53 2.34 2.60 2.72 2.74 2.81 2.68 2.40 2.16 2.07 2.00 1.98 1.96 2.03 1.96 1.90 1.85 1.63 1.51 1.57 1.62 1.60 1.59
3.27 4.20 4.09 3.54 3.14 2.79 2.47 2.09 1.85 1.81 1.47 1.10 0.95 1.25 1.68 2.06 1.80 1.66 1.60 1.50 1.34 1.48 1.55 1.88 2.67 2.77 2.56 2.45 2.70 2.80 2.85 3.02 2.92 2.63 2.43 2.19 2.02 2.00 2.00 2.06 1.92 1.87 1.88 1.86 1.75 1.69 1.68 1.67 1.69
3.57 3.69 3.99 3.51 3.11 2.88 2.71 1.99 1.76 1.75 1.38 1.09 1.03 1.34 2.17 2.57 2.13 1.80 1.58 1.65 1.56 1.54 1.48 1.55 2.31 2.62 2.58 2.60 2.69 2.67 2.68 2.78 2.80 2.55 2.35 2.12 1.99 1.98 2.11 2.20 2.03 1.99 1.85 1.76 1.82 1.84 1.85 1.89 1.88
3.53 3.63 3.71 3.07 3.01 3.22 2.80 1.94 1.79 1.71 1.61 1.31 0.97 1.51 2.31 2.81 2.37 1.86 1.67 1.69 1.77 1.69 1.63 1.56 1.76 2.13 2.47 2.54 2.45 2.45 2.43 2.42 2.52 2.38 2.25 2.07 1.99 1.98 2.09 2.14 2.06 2.08 2.06 2.01 2.09 2.23 2.19 2.12 2.17
2.59 2.96 3.04 2.95 3.05 3.25 2.41 1.80 1.48 1.46 1.44 1.08 0.90 1.49 2.24 2.28 2.02 1.87 1.88 1.99 2.11 1.90 1.75 1.57 1.55 1.62 1.73 1.98 2.18 2.35 2.40 2.35 2.41 2.21 2.02 1.90 1.87 1.91 2.06 2.06 2.04 2.17 2.23 2.28 2.46 2.62 2.54 2.63 2.56
2.33 3.11 3.42 3.40 3.10 2.62 1.72 1.57 1.35 1.12 1.19 1.03 0.85 0.97 1.30 1.48 1.62 1.82 1.87 1.94 2.01 1.74 1.60 1.61 1.59 1.59 1.66 1.64 1.72 2.04 2.18 2.22 2.08 1.99 1.86 1.71 1.47 1.42 1.63 1.78 2.22 2.53 2.73 2.66 2.66 2.55 2.41 2.31 2.16
2.39 3.24 3.22 2.54 2.20 1.94 1.42 1.33 1.19 1.21 1.27 1.19 1.00 0.99 1.13 1.33 1.65 1.81 1.72 1.70 1.62 1.53 1.44 1.44 1.43 1.53 1.59 1.45 1.67 1.98 1.80 1.70 1.47 1.48 1.35 1.43 1.38 1.35 1.18 1.40 1.97 2.27 2.38 2.40 2.40 2.33 2.07 1.75 1.40
1.88 2.45 2.19 1.92 1.68 1.42 1.28 1.29 1.13 1.20 1.42 1.27 1.09 1.15 1.43 1.66 1.81 1.63 1.51 1.50 1.33 1.30 1.27 1.15 1.17 1.20 1.35 1.51 1.76 2.04 2.09 1.89 1.66 1.40 1.33 1.38 1.31 1.23 1.12 1.14 1.32 1.49 1.56 1.46 1.50 1.53 1.40 1.32 1.22
1.60 1.57 1.54 1.72 1.48 1.42 1.28 1.22 1.22 1.20 1.26 1.11 0.94 1.01 1.25 1.52 1.73 1.59 1.42 1.35 1.11 1.09 1.19 0.98 0.87 0.99 1.15 1.24 1.37 1.64 1.71 1.62 1.52 1.32 1.22 1.31 1.35 1.24 1.20 1.20 1.25 1.26 1.23 1.27 1.28 1.37 1.34 1.18 1.08
1.96 1.67 1.41 1.38 1.38 1.44 1.26 1.19 1.17 1.15 1.04 0.93 0.88 1.07 1.21 1.28 1.42 1.39 1.35 1.29 1.18 1.11 1.13 1.02 0.88 0.85 0.90 0.96 1.06 1.19 1.34 1.41 1.43 1.41 1.21 1.21 1.34 1.31 1.29 1.23 1.28 1.16 1.06 1.12 1.21 1.27 1.33 1.24 1.10
1.86 1.59 1.56 1.54 1.43 1.40 1.39 1.15 1.13 1.35 1.04 0.91 0.99 1.09 1.09 1.08 1.10 1.25 1.27 1.25 1.20 1.12 1.15 1.07 0.95 0.92 0.93 0.89 0.87 0.87 1.00 1.16 1.27 1.30 1.21 1.23 1.33 1.34 1.39 1.34 1.27 1.20 1.10 1.12 1.30 1.29 1.32 1.31 1.25
1.78 1.93 1.83 1.71 1.56 1.49 1.40 1.55 1.44 1.30 1.07 1.02 1.09 1.04 1.01 0.99 0.99 1.12 1.11 1.07 1.08 1.15 1.16 1.13 1.07 1.07 1.06 0.99 0.94 0.81 0.85 0.93 1.07 1.22 1.22 1.28 1.24 1.18 1.26 1.28 1.22 1.19 1.19 1.21 1.27 1.32 1.40 1.33 1.24
2.01 2.28 2.44 2.02 1.69 1.43 1.46 2.00 1.81 1.42 1.15 1.17 1.13 1.04 1.00 0.98 0.95 0.98 0.98 1.01 0.99 1.05 1.19 1.27 1.17 1.18 1.18 1.17 1.13 1.04 1.04 1.11 1.19 1.36 1.33 1.27 1.30 1.26 1.26 1.29 1.27 1.29 1.32 1.31 1.35 1.43 1.44 1.41 1.39
2.15 2.20 2.09 1.92 1.55 1.30 1.33 1.71 1.70 1.48 1.21 1.09 1.07 1.02 0.93 0.84 0.84 0.82 0.80 0.82 0.90 0.96 1.06 1.19 1.29 1.34 1.31 1.30 1.37 1.43 1.44 1.43 1.45 1.53 1.44 1.31 1.31 1.36 1.47 1.49 1.49 1.44 1.47 1.47 1.42 1.45 1.38 1.39 1.40
2.02 1.70 1.49 1.45 1.35 1.21 1.16 1.29 1.33 1.35 1.22 1.03 0.91 0.88 0.89 0.80 0.76 0.72 0.69 0.70 0.80 0.88 0.95 1.09 1.23 1.46 1.52 1.50 1.47 1.61 1.63 1.67 1.75 1.81 1.63 1.50 1.52 1.61 1.79 1.85 1.75 1.72 1.71 1.70 1.63 1.68 1.58 1.46 1.49
1.45 1.40 1.28 1.10 1.05 1.13 1.06 1.06 1.11 1.11 1.10 0.98 0.84 0.72 0.70 0.68 0.64 0.62 0.59 0.61 0.66 0.73 0.79 0.92 1.06 1.26 1.36 1.40 1.51 1.71 1.87 2.00 2.08 2.12 1.96 1.84 1.80 1.93 2.07 1.98 2.06 2.06 1.93 1.92 1.98 2.03 1.99 1.80 1.65
1.28 1.31 1.15 0.99 0.84 0.87 0.92 0.96 0.98 0.93 0.93 0.82 0.71 0.64 0.56 0.51 0.48 0.44 0.40 0.43 0.47 0.48 0.54 0.66 0.82 0.93 1.08 1.28 1.55 1.76 2.02 2.06 2.12 2.16 2.17 2.08 2.01 2.14 2.17 2.24 2.33 2.35 2.36 2.29 2.18 2.30 2.46 2.19 1.94
1.10 1.14 1.03 0.97 0.85 0.79 0.78 0.96 0.91 0.83 0.79 0.72 0.60 0.51 0.43 0.36 0.32 0.27 0.27 0.34 0.40 0.40 0.43 0.53 0.68 0.84 1.08 1.33 1.69 1.99 2.27 2.37 2.42 2.37 2.38 2.36 2.34 2.36 2.38 2.43 2.49 2.50 2.36 2.36 2.47 2.60 2.95 2.75 2.37
1.08 0.78 0.73 0.75 0.93 0.98 0.81 1.12 0.84 0.69 0.67 0.61 0.53 0.48 0.42 0.34 0.31 0.30 0.28 0.28 0.32 0.36 0.44 0.58 0.78 1.02 1.31 1.63 1.99 2.27 2.57 2.73 2.57 2.55 2.54 2.49 2.37 2.35 2.43 2.42 2.40 2.36 2.31 2.39 2.46 2.52 2.95 3.17 2.88
0.76 0.62 0.74 0.80 0.85 0.81 0.63 0.81 0.73 0.59 0.64 0.57 0.49 0.47 0.49 0.47 0.38 0.36 0.37 0.38 0.41 0.49 0.59 0.78 1.06 1.37 1.67 1.94 2.11 2.36 2.50 2.52 2.48 2.43 2.42 2.32 2.28 2.25 2.25 2.23 2.31 2.31 2.33 2.40 2.58 2.71 2.99 3.05 3.06
0.58 0.69 0.83 0.87 0.93 0.99 0.55 0.66 0.77 0.59 0.55 0.53 0.47 0.41 0.40 0.45 0.41 0.41 0.46 0.53 0.61 0.69 0.86 1.06 1.24 1.54 1.73 1.90 2.03 2.19 2.33 2.37 2.35 2.33 2.37 2.35 2.30 2.20 2.11 2.05 2.11 2.23 2.36 2.41 2.51 2.68 2.96 3.10 3.20
0.58 1.01 1.38 1.39 1.30 0.97 0.47 0.69 0.80 0.60 0.47 0.41 0.42 0.41 0.37 0.41 0.47 0.49 0.62 0.78 0.85 0.90 1.02 1.20 1.29 1.49 1.61 1.68 1.81 1.95 1.98 2.01 2.03 2.03 2.04 1.96 1.90 1.87 1.92 1.97 2.04 2.17 2.26 2.33 2.46 2.60 2.67 2.82 3.09
0.54 0.84 1.38 1.48 1.25 0.91 0.65 0.95 0.87 0.63 0.49 0.44 0.44 0.43 0.45 0.54 0.65 0.76 0.91 1.00 1.08 1.11 1.10 1.16 1.31 1.35 1.37 1.44 1.45 1.54 1.61 1.66 1.72 1.69 1.69 1.74 1.76 1.78 1.72 1.75 1.82 2.03 2.21 2.29 2.39 2.41 2.41 2.48 2.69
0.56 0.61 0.69 0.99 0.91 0.95 0.90 1.08 1.00 0.63 0.51 0.49 0.49 0.50 0.55 0.69 0.90 1.16 1.36 1.45 1.52 1.46 1.30 1.18 1.20 1.20 1.18 1.29 1.34 1.37 1.43 1.47 1.49 1.50 1.42 1.53 1.55 1.56 1.51 1.55 1.58 1.69 1.89 2.13 2.27 2.24 2.19 2.17 2.34
0.46 0.62 0.80 1.19 1.36 1.32 1.19 1.33 1.31 0.86 0.67 0.59 0.62 0.70 0.81 1.01 1.34 1.64 1.91 2.08 2.06 1.84 1.59 1.36 1.19 1.11 1.08 1.14 1.24 1.31 1.34 1.34 1.30 1.34 1.26 1.29 1.38 1.38 1.31 1.33 1.45 1.61 1.70 1.86 2.06 2.14 2.09 2.11 2.21
0.51 0.70 0.88 1.14 1.18 1.48 1.67 1.66 1.36 1.14 0.93 0.86 0.95 1.14 1.31 1.57 1.79 1.98 2.16 2.30 2.10 1.91 1.63 1.36 1.18 1.17 1.20 1.24 1.28 1.29 1.25 1.23 1.20 1.15 1.10 1.14 1.22 1.22 1.21 1.36 1.44 1.52 1.62 1.78 2.01 2.16 2.16 2.10 2.11
0.63 0.90 1.16 1.59 1.46 1.37 1.69 1.78 1.26 1.08 1.04 1.06 1.16 1.26 1.39 1.52 1.55 1.66 1.77 1.79 1.83 1.79 1.60 1.40 1.27 1.26 1.30 1.35 1.39 1.34 1.27 1.22 1.19 1.14 1.05 1.03 0.99 0.96 1.08 1.22 1.26 1.31 1.34 1.54 1.83 2.02 2.07 2.05 1.94

GEFSSGP_prec_meanprecacc_360.txt.gz
Total_Precipitation_Accumulation
3.00 2.99 3.44 4.33 5.13 4.67 4.14 3.34 2.80 2.63 2.23 1.77 1.35 1.30 1.61 2.13 2.74 3.30 3.53 3.26 2.26 1.80 1.96 2.96 3.82 3.48 2.99 2.58 2.31 2.33 2.34 2.48 2.51 2.51 2.34 2.15 2.01 1.95 1.81 1.68 1.74 1.68 1.55 1.45 1.40 1.54 1.61 1.56 1.71
2.30 3.16 4.05 5.05 4.80 4.15 3.87 3.33 3.01 2.46 1.78 1.43 1.05 0.94 1.04 1.19 1.25 1.99 3.33 3.15 1.99 1.65 1.80 2.23 3.15 3.05 2.63 2.40 2.32 2.43 2.45 2.59 2.57 2.46 2.28 2.11 2.07 2.01 1.86 1.81 1.93 1.74 1.64 1.52 1.46 1.60 1.74 1.64 1.71
2.40 3.55 4.58 4.94 3.89 3.62 3.73 3.39 2.75 1.99 1.45 1.34 1.13 0.95 1.18 1.54 1.59 2.26 3.07 2.35 1.68 1.59 1.78 2.45 3.14 2.88 2.53 2.33 2.51 2.70 2.69 2.66 2.50 2.31 2.15 2.10 2.10 2.06 2.00 2.02 2.11 1.87 1.75 1.59 1.50 1.60 1.65 1.61 1.62
2.77 3.98 4.22 4.00 3.37 2.95 3.03 2.96 2.30 1.86 1.42 1.03 1.03 1.07 1.15 1.59 1.66 1.98 2.02 1.67 1.46 1.62 1.81 2.41 3.08 2.83 2.58 2.40 2.64 2.77 2.78 2.84 2.71 2.43 2.19 2.10 2.03 2.01 1.99 2.05 1.98 1.93 1.89 1.67 1.54 1.60 1.66 1.64 1.64
3.27 4.21 4.12 3.56 3.15 2.80 2.48 2.10 1.86 1.81 1.47 1.10 0.95 1.25 1.69 2.08 1.82 1.67 1.62 1.51 1.34 1.48 1.56 1.91 2.72 2.81 2.61 2.52 2.75 2.84 2.87 3.04 2.95 2.67 2.47 2.23 2.06 2.03 2.03 2.08 1.94 1.89 1.92 1.90 1.79 1.73 1.72 1.72 1.74
3.57 3.70 4.01 3.52 3.12 2.90 2.73 2.00 1.78 1.76 1.39 1.09 1.03 1.34 2.18 2.59 2.17 1.83 1.60 1.66 1.57 1.55 1.50 1.57 2.35 2.67 2.64 2.67 2.74 2.71 2.71 2.80 2.83 2.58 2.38 2.15 2.01 2.00 2.13 2.21 2.05 2.01 1.88 1.79 1.86 1.88 1.89 1.93 1.91
3.54 3.64 3.73 3.08 3.02 3.24 2.81 1.96 1.80 1.71 1.61 1.31 0.97 1.51 2.32 2.83 2.40 1.92 1.71 1.72 1.78 1.70 1.64 1.58 1.79 2.17 2.53 2.62 2.51 2.48 2.46 2.44 2.55 2.41 2.28 2.10 2.03 2.01 2.11 2.17 2.08 2.10 2.08 2.06 2.14 2.27 2.23 2.16 2.22
2.60 2.97 3.04 2.95 3.06 3.27 2.42 1.81 1.49 1.47 1.45 1.09 0.91 1.50 2.25 2.29 2.05 1.94 1.92 2.02 2.13 1.92 1.76 1.59 1.57 1.65 1.76 2.01 2.23 2.40 2.45 2.40 2.44 2.25 2.05 1.92 1.90 1.93 2.08 2.09 2.07 2.19 2.25 2.30 2.50 2.67 2.58 2.67 2.60
2.35 3.11 3.42 3.40 3.10 2.63 1.72 1.58 1.35 1.13 1.19 1.04 0.85 0.98 1.32 1.50 1.65 1.88 1.93 1.98 2.05 1.77 1.62 1.65 1.62 1.60 1.67 1.66 1.75 2.08 2.22 2.27 2.13 2.03 1.89 1.73 1.49 1.43 1.64 1.80 2.25 2.55 2.74 2.67 2.67 2.58 2.45 2.35 2.20
2.40 3.25 3.22 2.55 2.21 1.94 1.43 1.33 1.20 1.22 1.27 1.20 1.01 1.00 1.15 1.36 1.71 1.89 1.78 1.76 1.67 1.56 1.47 1.47 1.46 1.55 1.60 1.46 1.69 2.00 1.82 1.72 1.50 1.50 1.37 1.44 1.38 1.36 1.19 1.42 2.00 2.31 2.41 2.41 2.42 2.35 2.09 1.77 1.42
1.89 2.45 2.19 1.92 1.68 1.43 1.29 1.30 1.14 1.21 1.42 1.27 1.09 1.16 1.45 1.68 1.86 1.74 1.56 1.53 1.38 1.34 1.29 1.18 1.20 1.24 1.38 1.54 1.78 2.07 2.11 1.90 1.67 1.42 1.34 1.39 1.32 1.24 1.13 1.15 1.34 1.52 1.59 1.48 1.51 1.54 1.41 1.32 1.23
1.61 1.57 1.54 1.73 1.48 1.42 1.28 1.22 1.22 1.21 1.26 1.11 0.95 1.02 1.26 1.53 1.75 1.66 1.49 1.38 1.14 1.12 1.23 1.01 0.90 1.04 1.20 1.28 1.41 1.67 1.73 1.64 1.53 1.34 1.23 1.32 1.37 1.26 1.21 1.21 1.26 1.28 1.25 1.28 1.29 1.38 1.35 1.18 1.09
1.97 1.68 1.42 1.38 1.38 1.44 1.26 1.19 1.17 1.15 1.04 0.93 0.88 1.07 1.21 1.28 1.43 1.42 1.42 1.34 1.20 1.14 1.18 1.05 0.91 0.88 0.95 1.01 1.11 1.22 1.37 1.44 1.47 1.45 1.24 1.23 1.37 1.35 1.31 1.25 1.30 1.19 1.08 1.14 1.22 1.28 1.34 1.25 1.10
1.87 1.61 1.57 1.55 1.44 1.41 1.40 1.15 1.13 1.36 1.04 0.92 0.99 1.10 1.10 1.09 1.11 1.27 1.32 1.31 1.23 1.16 1.20 1.10 0.98 0.96 0.97 0.92 0.91 0.90 1.03 1.20 1.31 1.35 1.25 1.25 1.36 1.38 1.43 1.36 1.29 1.22 1.14 1.15 1.32 1.30 1.33 1.32 1.26
1.79 1.95 1.85 1.73 1.57 1.50 1.41 1.55 1.44 1.30 1.07 1.02 1.09 1.05 1.01 0.99 0.99 1.13 1.14 1.12 1.13 1.20 1.21 1.17 1.10 1.10 1.10 1.02 0.96 0.83 0.86 0.96 1.11 1.27 1.27 1.31 1.27 1.21 1.29 1.31 1.25 1.22 1.22 1.24 1.28 1.33 1.41 1.34 1.25
2.04 2.30 2.46 2.06 1.70 1.44 1.46 2.01 1.81 1.42 1.15 1.17 1.14 1.05 1.00 0.98 0.95 0.99 1.00 1.04 1.03 1.08 1.22 1.30 1.19 1.21 1.20 1.19 1.15 1.06 1.05 1.13 1.22 1.40 1.38 1.32 1.33 1.29 1.29 1.32 1.30 1.31 1.33 1.32 1.36 1.44 1.45 1.42 1.40
2.17 2.22 2.12 1.95 1.57 1.30 1.34 1.71 1.70 1.48 1.21 1.09 1.07 1.02 0.93 0.84 0.84 0.82 0.80 0.84 0.94 0.99 1.08 1.22 1.32 1.37 1.33 1.31 1.39 1.45 1.45 1.45 1.48 1.56 1.47 1.35 1.34 1.37 1.49 1.51 1.50 1.45 1.47 1.48 1.43 1.46 1.39 1.40 1.41
2.03 1.71 1.50 1.46 1.37 1.22 1.17 1.29 1.33 1.36 1.23 1.03 0.91 0.88 0.89 0.80 0.76 0.72 0.69 0.70 0.81 0.90 0.97 1.11 1.25 1.47 1.53 1.52 1.48 1.62 1.65 1.69 1.78 1.84 1.66 1.53 1.54 1.63 1.81 1.87 1.76 1.73 1.71 1.70 1.64 1.69 1.59 1.47 1.50
1.47 1.42 1.29 1.10 1.06 1.13 1.06 1.07 1.11 1.12 1.11 0.98 0.85 0.72 0.70 0.69 0.65 0.62 0.60 0.62 0.67 0.74 0.80 0.93 1.07 1.27 1.37 1.41 1.52 1.73 1.88 2.01 2.10 2.14 1.99 1.86 1.82 1.95 2.09 2.00 2.07 2.07 1.94 1.92 1.98 2.03 1.99 1.81 1.66
1.30 1.33 1.16 1.00 0.84 0.88 0.92 0.96 0.99 0.94 0.93 0.82 0.72 0.65 0.57 0.52 0.49 0.45 0.40 0.44 0.47 0.48 0.54 0.66 0.83 0.94 1.09 1.29 1.57 1.79 2.04 2.07 2.13 2.18 2.19 2.10 2.03 2.16 2.18 2.25 2.35 2.36 2.36 2.30 2.18 2.30 2.46 2.19 1.95
1.12 1.16 1.05 0.97 0.86 0.79 0.79 0.97 0.91 0.84 0.80 0.73 0.60 0.52 0.44 0.37 0.33 0.27 0.27 0.34 0.41 0.40 0.43 0.54 0.68 0.84 1.08 1.33 1.70 1.99 2.27 2.37 2.43 2.38 2.40 2.38 2.36 2.38 2.40 2.44 2.50 2.50 2.37 2.36 2.47 2.61 2.95 2.75 2.37
1.10 0.80 0.75 0.76 0.94 0.98 0.81 1.13 0.84 0.69 0.68 0.62 0.54 0.49 0.42 0.35 0.32 0.30 0.28 0.28 0.32 0.36 0.44 0.58 0.79 1.02 1.32 1.64 2.00 2.28 2.57 2.73 2.57 2.56 2.56 2.51 2.39 2.37 2.45 2.43 2.40 2.37 2.32 2.39 2.46 2.52 2.95 3.17 2.88
0.77 0.64 0.76 0.81 0.85 0.82 0.63 0.82 0.74 0.59 0.65 0.58 0.49 0.47 0.50 0.47 0.38 0.36 0.37 0.38 0.42 0.49 0.59 0.78 1.06 1.37 1.68 1.95 2.13 2.39 2.52 2.54 2.50 2.44 2.43 2.34 2.30 2.26 2.27 2.24 2.32 2.32 2.34 2.41 2.58 2.71 2.99 3.05 3.06
0.59 0.71 0.85 0.87 0.94 0.99 0.55 0.66 0.77 0.59 0.56 0.54 0.48 0.42 0.41 0.45 0.41 0.41 0.46 0.54 0.62 0.70 0.87 1.06 1.24 1.55 1.74 1.91 2.05 2.21 2.35 2.39 2.36 2.35 2.39 2.37 2.32 2.22 2.15 2.10 2.14 2.25 2.37 2.41 2.51 2.68 2.96 3.10 3.21
0.59 1.03 1.39 1.40 1.31 0.98 0.47 0.69 0.81 0.60 0.48 0.42 0.43 0.42 0.38 0.42 0.47 0.49 0.62 0.78 0.85 0.90 1.03 1.21 1.29 1.50 1.62 1.69 1.82 1.96 2.00 2.02 2.04 2.04 2.05 1.97 1.91 1.89 1.95 2.02 2.10 2.22 2.29 2.34 2.47 2.60 2.67 2.83 3.09
0.55 0.85 1.40 1.50 1.26 0.92 0.65 0.95 0.87 0.63 0.49 0.45 0.45 0.44 0.46 0.55 0.65 0.76 0.91 1.00 1.08 1.11 1.11 1.17 1.32 1.36 1.38 1.46 1.47 1.55 1.62 1.67 1.73 1.71 1.71 1.76 1.79 1.81 1.74 1.78 1.86 2.07 2.24 2.32 2.41 2.43 2.42 2.50 2.70
0.56 0.62 0.70 1.00 0.92 0.95 0.90 1.09 1.01 0.63 0.51 0.50 0.50 0.50 0.56 0.70 0.91 1.16 1.36 1.46 1.53 1.47 1.31 1.18 1.21 1.22 1.21 1.31 1.36 1.40 1.46 1.49 1.51 1.53 1.45 1.56 1.58 1.58 1.53 1.57 1.60 1.72 1.92 2.16 2.31 2.28 2.21 2.19 2.36
0.47 0.64 0.82 1.21 1.39 1.34 1.20 1.34 1.31 0.87 0.68 0.60 0.63 0.70 0.81 1.02 1.35 1.64 1.91 2.09 2.06 1.85 1.60 1.37 1.20 1.13 1.11 1.17 1.27 1.35 1.38 1.38 1.34 1.38 1.29 1.32 1.41 1.41 1.34 1.36 1.48 1.64 1.73 1.89 2.09 2.17 2.12 2.13 2.23
0.51 0.71 0.90 1.16 1.20 1.50 1.69 1.68 1.37 1.15 0.94 0.87 0.96 1.15 1.32 1.58 1.81 1.99 2.17 2.30 2.10 1.91 1.64 1.37 1.19 1.18 1.21 1.25 1.31 1.33 1.29 1.27 1.24 1.19 1.14 1.18 1.25 1.25 1.24 1.38 1.47 1.55 1.64 1.81 2.05 2.19 2.19 2.12 2.13
0.63 0.90 1.17 1.60 1.47 1.38 1.70 1.78 1.27 1.08 1.05 1.06 1.17 1.26 1.40 1.53 1.56 1.67 1.77 1.79 1.83 1.79 1.61 1.42 1.28 1.27 1.31 1.37 1.41 1.35 1.29 1.25 1.21 1.17 1.09 1.07 1.02 1.00 1.11 1.25 1.29 1.34 1.37 1.56 1.86 2.05 2.10 2.08 1.97

GEFSSGP_prec_meanprecacc_366.txt.gz
Total_Precipitation_Accumulation
3.02 3.00 3.45 4.33 5.14 4.68 4.15 3.34 2.81 2.63 2.24 1.77 1.35 1.30 1.63 2.14 2.75 3.32 3.54 3.27 2.26 1.81 1.97 2.99 3.87 3.53 3.04 2.63 2.36 2.37 2.39 2.53 2.56 2.59 2.46 2.22 2.06 1.99 1.85 1.72 1.78 1.72 1.59 1.48 1.43 1.57 1.67 1.63 1.78
2.30 3.17 4.05 5.05 4.82 4.17 3.89 3.33 3.01 2.46 1.79 1.43 1.06 0.95 1.06 1.19 1.25 1.99 3.34 3.15 2.00 1.66 1.81 2.25 3.19 3.10 2.67 2.45 2.38 2.47 2.50 2.63 2.63 2.53 2.36 2.18 2.12 2.06 1.90 1.86 1.97 1.79 1.68 1.55 1.48 1.63 1.79 1.71 1.77
2.40 3.56 4.59 4.95 3.90 3.63 3.74 3.40 2.76 1.99 1.45 1.34 1.14 0.96 1.18 1.55 1.60 2.27 3.08 2.36 1.69 1.60 1.78 2.47 3.18 2.93 2.57 2.37 2.58 2.76 2.74 2.71 2.55 2.37 2.22 2.16 2.16 2.11 2.06 2.07 2.15 1.91 1.80 1.62 1.53 1.63 1.69 1.66 1.70
2.78 3.98 4.23 4.00 3.37 2.96 3.04 2.97 2.31 1.86 1.43 1.04 1.04 1.08 1.16 1.60 1.66 2.00 2.04 1.68 1.46 1.63 1.82 2.43 3.12 2.88 2.62 2.44 2.70 2.84 2.84 2.88 2.76 2.48 2.24 2.15 2.08 2.06 2.03 2.08 2.02 1.97 1.92 1.69 1.57 1.63 1.69 1.69 1.69
3.27 4.21 4.12 3.56 3.15 2.81 2.48 2.10 1.86 1.81 1.47 1.10 0.96 1.26 1.69 2.09 1.83 1.69 1.63 1.52 1.35 1.49 1.56 1.92 2.77 2.88 2.66 2.57 2.81 2.89 2.92 3.09 3.00 2.72 2.52 2.27 2.10 2.07 2.06 2.11 1.97 1.93 1.95 1.94 1.83 1.77 1.76 1.76 1.78
3.58 3.71 4.02 3.52 3.13 2.90 2.73 2.01 1.78 1.76 1.39 1.09 1.03 1.35 2.19 2.61 2.19 1.85 1.62 1.67 1.58 1.56 1.51 1.59 2.40 2.73 2.70 2.74 2.81 2.76 2.75 2.85 2.88 2.64 2.44 2.19 2.05 2.04 2.17 2.24 2.08 2.05 1.91 1.85 1.91 1.92 1.92 1.96 1.94
3.54 3.65 3.74 3.08 3.03 3.24 2.81 1.96 1.80 1.72 1.62 1.31 0.97 1.51 2.33 2.84 2.41 1.94 1.73 1.73 1.79 1.71 1.65 1.60 1.83 2.21 2.57 2.69 2.58 2.54 2.52 2.51 2.61 2.46 2.34 2.15 2.07 2.04 2.15 2.20 2.11 2.13 2.12 2.09 2.17 2.30 2.25 2.19 2.24
2.61 2.97 3.05 2.96 3.07 3.27 2.42 1.81 1.49 1.47 1.45 1.09 0.91 1.51 2.26 2.30 2.06 1.95 1.94 2.04 2.14 1.93 1.78 1.61 1.60 1.69 1.80 2.06 2.28 2.46 2.51 2.45 2.50 2.30 2.10 1.98 1.96 1.99 2.13 2.13 2.11 2.23 2.28 2.33 2.53 2.70 2.62 2.71 2.63
2.35 3.12 3.43 3.41 3.11 2.63 1.72 1.58 1.35 1.13 1.20 1.05 0.86 0.98 1.33 1.52 1.67 1.90 1.95 2.00 2.08 1.79 1.65 1.68 1.65 1.64 1.71 1.70 1.79 2.12 2.27 2.30 2.17 2.07 1.93 1.78 1.55 1.48 1.69 1.85 2.30 2.59 2.77 2.70 2.70 2.60 2.48 2.39 2.24
2.40 3.25 3.23 2.55 2.21 1.94 1.43 1.33 1.20 1.23 1.28 1.20 1.01 1.01 1.17 1.38 1.72 1.90 1.80 1.78 1.69 1.59 1.49 1.50 1.49 1.58 1.63 1.49 1.72 2.03 1.84 1.74 1.53 1.53 1.41 1.48 1.43 1.40 1.22 1.45 2.03 2.34 2.44 2.43 2.44 2.36 2.11 1.80 1.52
1.89 2.45 2.20 1.92 1.68 1.43 1.29 1.30 1.14 1.22 1.43 1.27 1.10 1.17 1.47 1.69 1.88 1.76 1.60 1.59 1.43 1.38 1.33 1.21 1.23 1.27 1.41 1.56 1.80 2.08 2.13 1.91 1.69 1.43 1.35 1.41 1.35 1.28 1.17 1.19 1.37 1.55 1.61 1.49 1.53 1.55 1.41 1.33 1.27
1.61 1.58 1.54 1.73 1.48 1.42 1.29 1.22 1.23 1.21 1.27 1.11 0.95 1.03 1.26 1.53 1.76 1.68 1.53 1.43 1.17 1.15 1.26 1.03 0.92 1.06 1.22 1.30 1.42 1.69 1.74 1.65 1.54 1.35 1.25 1.35 1.40 1.30 1.26 1.26 1.30 1.30 1.26 1.29 1.30 1.39 1.36 1.18 1.09
1.97 1.69 1.42 1.38 1.38 1.44 1.26 1.19 1.17 1.16 1.05 0.93 0.88 1.07 1.22 1.28 1.44 1.44 1.45 1.38 1.23 1.17 1.20 1.07 0.93 0.90 0.96 1.02 1.13 1.24 1.39 1.46 1.48 1.46 1.25 1.25 1.40 1.38 1.35 1.28 1.32 1.20 1.10 1.15 1.24 1.29 1.35 1.26 1.11
1.87 1.62 1.58 1.55 1.44 1.41 1.40 1.15 1.14 1.36 1.04 0.92 0.99 1.10 1.11 1.10 1.12 1.28 1.34 1.33 1.24 1.18 1.22 1.14 1.01 0.99 0.99 0.94 0.93 0.92 1.05 1.23 1.34 1.38 1.29 1.28 1.38 1.41 1.46 1.39 1.31 1.24 1.16 1.18 1.35 1.32 1.35 1.34 1.28
1.80 1.95 1.85 1.73 1.57 1.50 1.41 1.55 1.45 1.31 1.07 1.02 1.09 1.05 1.02 1.00 1.00 1.14 1.16 1.14 1.15 1.23 1.25 1.21 1.13 1.14 1.12 1.04 0.99 0.85 0.88 0.98 1.14 1.31 1.31 1.36 1.31 1.24 1.32 1.33 1.26 1.23 1.24 1.27 1.31 1.35 1.43 1.36 1.27
2.04 2.31 2.47 2.06 1.71 1.44 1.47 2.01 1.82 1.43 1.16 1.17 1.14 1.05 1.01 0.98 0.96 1.00 1.01 1.06 1.05 1.10 1.24 1.33 1.22 1.24 1.22 1.20 1.17 1.09 1.08 1.14 1.23 1.42 1.41 1.36 1.40 1.35 1.34 1.37 1.32 1.32 1.34 1.33 1.37 1.45 1.46 1.43 1.41
2.18 2.23 2.12 1.95 1.58 1.31 1.34 1.72 1.71 1.49 1.22 1.10 1.08 1.03 0.93 0.85 0.84 0.82 0.81 0.85 0.95 1.00 1.09 1.24 1.34 1.39 1.34 1.32 1.40 1.47 1.47 1.47 1.49 1.58 1.49 1.37 1.38 1.42 1.52 1.54 1.52 1.46 1.48 1.49 1.44 1.47 1.39 1.41 1.42
2.04 1.72 1.50 1.46 1.38 1.23 1.17 1.30 1.34 1.36 1.23 1.04 0.92 0.89 0.89 0.80 0.77 0.72 0.69 0.71 0.82 0.90 0.98 1.12 1.27 1.49 1.55 1.52 1.49 1.63 1.66 1.70 1.79 1.86 1.68 1.54 1.56 1.67 1.83 1.89 1.78 1.73 1.72 1.71 1.65 1.69 1.59 1.48 1.51
1.47 1.42 1.30 1.11 1.08 1.16 1.08 1.08 1.11 1.12 1.11 0.99 0.85 0.73 0.71 0.69 0.65 0.63 0.60 0.62 0.67 0.74 0.81 0.94 1.09 1.30 1.38 1.42 1.53 1.73 1.89 2.02 2.11 2.16 2.00 1.87 1.83 1.96 2.10 2.01 2.08 2.08 1.95 1.93 1.99 2.03 2.00 1.81 1.66
1.31 1.34 1.17 1.01 0.85 0.90 0.95 0.98 1.00 0.95 0.95 0.83 0.72 0.66 0.58 0.53 0.50 0.45 0.41 0.44 0.48 0.49 0.55 0.67 0.84 0.96 1.11 1.30 1.57 1.79 2.04 2.07 2.14 2.20 2.20 2.11 2.04 2.16 2.19 2.26 2.36 2.37 2.38 2.31 2.19 2.30 2.46 2.19 1.95
1.13 1.16 1.06 0.99 0.87 0.80 0.80 0.98 0.93 0.86 0.81 0.74 0.61 0.53 0.45 0.37 0.33 0.28 0.28 0.35 0.41 0.40 0.44 0.54 0.69 0.85 1.09 1.34 1.71 2.00 2.28 2.38 2.44 2.39 2.40 2.39 2.37 2.39 2.40 2.46 2.51 2.51 2.37 2.37 2.48 2.61 2.95 2.76 2.38
1.10 0.80 0.76 0.78 0.95 0.99 0.82 1.14 0.85 0.71 0.69 0.63 0.55 0.49 0.43 0.35 0.32 0.30 0.28 0.29 0.32 0.37 0.45 0.58 0.79 1.03 1.32 1.65 2.01 2.28 2.58 2.74 2.58 2.57 2.57 2.51 2.40 2.37 2.45 2.44 2.42 2.38 2.33 2.39 2.47 2.52 2.95 3.18 2.89
0.77 0.65 0.78 0.83 0.87 0.83 0.63 0.82 0.74 0.60 0.66 0.58 0.50 0.48 0.50 0.48 0.39 0.37 0.38 0.38 0.42 0.49 0.59 0.79 1.06 1.37 1.69 1.96 2.14 2.40 2.54 2.55 2.50 2.44 2.44 2.35 2.31 2.27 2.28 2.25 2.34 2.33 2.36 2.42 2.60 2.72 3.00 3.05 3.07
0.60 0.72 0.86 0.89 0.95 1.00 0.55 0.66 0.78 0.59 0.56 0.54 0.48 0.43 0.42 0.46 0.42 0.42 0.46 0.54 0.62 0.70 0.87 1.07 1.24 1.55 1.75 1.92 2.06 2.23 2.37 2.39 2.37 2.35 2.39 2.37 2.33 2.22 2.15 2.11 2.17 2.28 2.40 2.44 2.54 2.71 2.97 3.11 3.21
0.60 1.05 1.41 1.41 1.32 0.98 0.48 0.70 0.81 0.60 0.48 0.42 0.43 0.43 0.39 0.42 0.48 0.49 0.62 0.78 0.85 0.90 1.03 1.21 1.30 1.50 1.62 1.70 1.83 1.98 2.00 2.03 2.04 2.04 2.06 1.97 1.91 1.89 1.96 2.04 2.12 2.25 2.33 2.39 2.50 2.63 2.70 2.84 3.10
0.56 0.86 1.41 1.51 1.27 0.92 0.66 0.96 0.88 0.63 0.49 0.45 0.45 0.44 0.47 0.55 0.66 0.76 0.91 1.00 1.08 1.12 1.11 1.17 1.33 1.37 1.39 1.47 1.48 1.56 1.63 1.68 1.73 1.71 1.72 1.77 1.80 1.81 1.75 1.79 1.86 2.08 2.27 2.35 2.44 2.45 2.44 2.51 2.71
0.57 0.63 0.71 1.01 0.93 0.96 0.91 1.10 1.01 0.64 0.51 0.50 0.50 0.50 0.56 0.70 0.91 1.17 1.36 1.46 1.53 1.47 1.31 1.19 1.22 1.24 1.22 1.32 1.37 1.41 1.47 1.50 1.52 1.54 1.46 1.57 1.59 1.59 1.54 1.58 1.61 1.73 1.93 2.18 2.33 2.31 2.24 2.21 2.37
0.48 0.64 0.83 1.23 1.40 1.35 1.21 1.34 1.32 0.87 0.68 0.60 0.63 0.70 0.81 1.02 1.35 1.66 1.93 2.10 2.07 1.86 1.61 1.37 1.21 1.14 1.12 1.18 1.27 1.37 1.40 1.40 1.37 1.39 1.31 1.34 1.42 1.42 1.35 1.37 1.48 1.64 1.74 1.91 2.11 2.19 2.15 2.17 2.25
0.52 0.72 0.91 1.17 1.21 1.51 1.70 1.68 1.37 1.15 0.95 0.88 0.97 1.15 1.33 1.58 1.81 2.01 2.19 2.31 2.11 1.92 1.65 1.38 1.21 1.20 1.22 1.27 1.32 1.34 1.30 1.28 1.26 1.21 1.16 1.20 1.27 1.26 1.25 1.39 1.48 1.55 1.65 1.82 2.05 2.20 2.22 2.16 2.17
0.64 0.91 1.18 1.61 1.48 1.38 1.70 1.79 1.27 1.08 1.05 1.07 1.18 1.27 1.41 1.54 1.57 1.68 1.79 1.80 1.85 1.81 1.62 1.42 1.29 1.28 1.33 1.39 1.43 1.37 1.31 1.26 1.23 1.19 1.10 1.09 1.05 1.03 1.13 1.27 1.30 1.34 1.37 1.57 1.86 2.06 2.11 2.11 2.01

GEFSSGP_prec_meanprecacc_372.txt.gz
Total_Precipitation_Accumulation
3.03 3.01 3.46 4.35 5.19 4.75 4.20 3.37 2.82 2.65 2.25 1.77 1.35 1.30 1.64 2.17 2.80 3.39 3.58 3.28 2.27 1.83 2.00 3.00 3.90 3.57 3.10 2.69 2.40 2.40 2.41 2.55 2.60 2.63 2.49 2.25 2.08 2.02 1.89 1.76 1.83 1.78 1.64 1.54 1.49 1.62 1.72 1.68 1.83
2.31 3.18 4.07 5.08 4.89 4.24 3.94 3.36 3.04 2.47 1.79 1.44 1.06 0.95 1.06 1.20 1.26 2.02 3.37 3.18 2.01 1.67 1.82 2.26 3.21 3.13 2.71 2.51 2.42 2.49 2.52 2.66 2.67 2.56 2.39 2.21 2.14 2.11 1.95 1.89 2.01 1.84 1.75 1.63 1.57 1.70 1.85 1.77 1.83
2.41 3.57 4.62 4.99 3.95 3.70 3.79 3.43 2.76 1.99 1.45 1.35 1.14 0.96 1.19 1.56 1.61 2.29 3.10 2.37 1.71 1.60 1.79 2.47 3.20 2.95 2.59 2.40 2.61 2.78 2.76 2.74 2.60 2.41 2.25 2.19 2.19 2.16 2.12 2.11 2.18 1.95 1.85 1.68 1.59 1.68 1.74 1.73 1.77
2.80 4.00 4.26 4.05 3.41 3.00 3.06 2.98 2.31 1.86 1.43 1.04 1.04 1.08 1.16 1.61 1.69 2.02 2.05 1.70 1.47 1.63 1.82 2.43 3.13 2.89 2.64 2.46 2.73 2.87 2.88 2.92 2.79 2.52 2.28 2.19 2.11 2.10 2.08 2.13 2.05 2.00 1.95 1.72 1.59 1.66 1.74 1.75 1.75
3.29 4.24 4.17 3.60 3.17 2.83 2.49 2.11 1.87 1.82 1.47 1.10 0.96 1.27 1.71 2.11 1.85 1.70 1.65 1.54 1.36 1.49 1.57 1.93 2.78 2.89 2.69 2.60 2.84 2.92 2.97 3.12 3.03 2.75 2.56 2.32 2.13 2.11 2.10 2.15 2.01 1.96 1.98 1.96 1.86 1.80 1.81 1.82 1.83
3.60 3.74 4.07 3.56 3.15 2.92 2.74 2.01 1.78 1.77 1.39 1.09 1.04 1.36 2.20 2.62 2.20 1.86 1.62 1.68 1.58 1.57 1.51 1.60 2.41 2.76 2.74 2.77 2.84 2.80 2.80 2.88 2.91 2.68 2.49 2.25 2.09 2.08 2.21 2.28 2.11 2.08 1.94 1.88 1.94 1.94 1.97 2.00 1.98
3.56 3.69 3.78 3.12 3.06 3.28 2.82 1.96 1.81 1.73 1.63 1.32 0.98 1.52 2.35 2.86 2.43 1.95 1.75 1.74 1.80 1.71 1.66 1.61 1.85 2.23 2.60 2.74 2.62 2.57 2.56 2.54 2.64 2.50 2.39 2.21 2.13 2.10 2.19 2.24 2.16 2.19 2.18 2.15 2.22 2.35 2.28 2.20 2.26
2.62 3.01 3.08 2.99 3.10 3.30 2.43 1.81 1.49 1.47 1.46 1.10 0.91 1.52 2.28 2.32 2.08 1.98 1.97 2.06 2.16 1.93 1.79 1.63 1.64 1.73 1.84 2.11 2.32 2.48 2.53 2.47 2.53 2.34 2.15 2.02 2.03 2.07 2.19 2.19 2.18 2.30 2.33 2.36 2.56 2.72 2.64 2.72 2.64
2.36 3.15 3.46 3.43 3.13 2.64 1.72 1.58 1.35 1.13 1.21 1.05 0.86 0.99 1.33 1.53 1.68 1.92 1.97 2.02 2.10 1.80 1.66 1.69 1.67 1.68 1.75 1.75 1.82 2.16 2.30 2.33 2.21 2.11 2.00 1.84 1.61 1.55 1.75 1.91 2.35 2.62 2.79 2.72 2.73 2.62 2.49 2.40 2.25
2.41 3.29 3.25 2.57 2.22 1.95 1.43 1.33 1.20 1.24 1.29 1.21 1.02 1.01 1.17 1.39 1.73 1.92 1.82 1.80 1.70 1.60 1.51 1.51 1.50 1.60 1.66 1.52 1.76 2.07 1.87 1.78 1.55 1.56 1.46 1.55 1.49 1.46 1.26 1.48 2.05 2.35 2.45 2.45 2.46 2.37 2.11 1.81 1.53
1.89 2.47 2.21 1.92 1.69 1.44 1.29 1.30 1.15 1.22 1.44 1.28 1.11 1.18 1.47 1.69 1.88 1.78 1.64 1.63 1.46 1.40 1.34 1.21 1.25 1.28 1.42 1.59 1.84 2.12 2.16 1.96 1.71 1.45 1.36 1.43 1.39 1.33 1.19 1.21 1.40 1.57 1.63 1.51 1.54 1.56 1.42 1.33 1.27
1.61 1.58 1.55 1.73 1.48 1.42 1.29 1.22 1.23 1.22 1.28 1.12 0.95 1.03 1.27 1.54 1.77 1.70 1.55 1.46 1.20 1.17 1.28 1.05 0.94 1.07 1.23 1.33 1.47 1.71 1.76 1.68 1.56 1.36 1.26 1.36 1.43 1.34 1.28 1.28 1.32 1.33 1.29 1.32 1.32 1.40 1.36 1.19 1.10
1.97 1.69 1.42 1.38 1.38 1.44 1.26 1.20 1.18 1.17 1.06 0.94 0.89 1.07 1.22 1.29 1.45 1.45 1.46 1.40 1.25 1.20 1.24 1.11 0.95 0.92 0.98 1.05 1.15 1.25 1.41 1.48 1.49 1.46 1.27 1.28 1.42 1.41 1.37 1.30 1.33 1.21 1.11 1.17 1.26 1.31 1.36 1.27 1.12
1.87 1.62 1.58 1.55 1.44 1.41 1.40 1.15 1.15 1.38 1.05 0.92 1.00 1.11 1.11 1.11 1.13 1.29 1.34 1.34 1.26 1.19 1.24 1.16 1.03 1.01 1.01 0.96 0.94 0.93 1.06 1.24 1.35 1.39 1.30 1.31 1.41 1.44 1.49 1.40 1.32 1.25 1.18 1.20 1.38 1.35 1.37 1.36 1.29
1.80 1.96 1.86 1.73 1.57 1.50 1.41 1.56 1.45 1.33 1.09 1.02 1.10 1.05 1.02 1.00 1.00 1.15 1.18 1.15 1.16 1.25 1.27 1.22 1.15 1.16 1.14 1.06 1.01 0.86 0.89 0.99 1.15 1.32 1.32 1.37 1.32 1.27 1.35 1.36 1.28 1.25 1.26 1.29 1.34 1.37 1.45 1.38 1.28
2.04 2.32 2.48 2.07 1.71 1.44 1.47 2.02 1.82 1.45 1.17 1.18 1.14 1.05 1.01 0.98 0.96 1.00 1.03 1.07 1.07 1.12 1.26 1.35 1.24 1.25 1.23 1.22 1.19 1.10 1.09 1.15 1.25 1.44 1.41 1.37 1.40 1.36 1.38 1.40 1.34 1.34 1.36 1.36 1.40 1.47 1.47 1.44 1.42
2.19 2.25 2.14 1.97 1.58 1.31 1.34 1.73 1.71 1.49 1.23 1.11 1.08 1.03 0.94 0.85 0.85 0.83 0.82 0.86 0.95 1.00 1.10 1.25 1.35 1.41 1.36 1.34 1.42 1.48 1.47 1.47 1.50 1.58 1.49 1.38 1.38 1.43 1.53 1.55 1.53 1.46 1.49 1.50 1.45 1.48 1.41 1.42 1.43
2.05 1.73 1.52 1.48 1.38 1.24 1.18 1.31 1.34 1.36 1.23 1.04 0.93 0.89 0.90 0.81 0.77 0.73 0.69 0.71 0.82 0.91 0.98 1.13 1.28 1.50 1.56 1.55 1.51 1.65 1.67 1.70 1.79 1.86 1.68 1.54 1.56 1.67 1.84 1.90 1.78 1.74 1.73 1.72 1.66 1.71 1.60 1.49 1.52
1.47 1.43 1.31 1.12 1.08 1.16 1.10 1.10 1.12 1.12 1.11 0.99 0.86 0.73 0.71 0.69 0.65 0.63 0.60 0.62 0.67 0.75 0.82 0.94 1.09 1.31 1.39 1.44 1.55 1.76 1.91 2.03 2.12 2.16 2.01 1.87 1.83 1.96 2.11 2.01 2.09 2.09 1.96 1.94 2.00 2.05 2.01 1.82 1.66
1.31 1.35 1.19 1.02 0.86 0.91 0.97 1.01 1.01 0.95 0.95 0.83 0.73 0.66 0.58 0.53 0.50 0.45 0.41 0.44 0.48 0.49 0.56 0.68 0.85 0.97 1.12 1.31 1.59 1.81 2.06 2.09 2.15 2.21 2.20 2.12 2.05 2.17 2.19 2.27 2.36 2.38 2.38 2.32 2.20 2.32 2.48 2.20 1.95
1.13 1.17 1.06 1.00 0.88 0.81 0.82 1.02 0.96 0.88 0.82 0.75 0.62 0.53 0.45 0.39 0.34 0.28 0.28 0.35 0.41 0.41 0.45 0.55 0.70 0.86 1.11 1.36 1.73 2.02 2.30 2.39 2.45 2.41 2.41 2.39 2.37 2.39 2.41 2.46 2.51 2.52 2.38 2.38 2.49 2.62 2.97 2.78 2.39
1.11 0.80 0.76 0.79 0.98 1.01 0.83 1.17 0.88 0.73 0.71 0.64 0.55 0.50 0.43 0.36 0.33 0.31 0.29 0.29 0.33 0.38 0.46 0.59 0.81 1.05 1.34 1.67 2.03 2.29 2.59 2.75 2.59 2.58 2.59 2.52 2.40 2.37 2.45 2.44 2.42 2.38 2.33 2.40 2.48 2.53 2.96 3.20 2.90
0.78 0.65 0.78 0.84 0.88 0.84 0.64 0.84 0.75 0.62 0.67 0.59 0.50 0.48 0.50 0.48 0.39 0.37 0.38 0.39 0.43 0.50 0.60 0.79 1.07 1.39 1.71 1.99 2.16 2.41 2.54 2.56 2.51 2.45 2.45 2.35 2.31 2.27 2.28 2.26 2.34 2.34 2.36 2.43 2.62 2.75 3.01 3.07 3.09
0.61 0.74 0.87 0.90 0.97 1.02 0.56 0.68 0.79 0.60 0.56 0.54 0.48 0.43 0.42 0.46 0.42 0.42 0.46 0.54 0.62 0.70 0.87 1.07 1.25 1.55 1.75 1.93 2.08 2.26 2.39 2.40 2.37 2.35 2.40 2.38 2.33 2.22 2.15 2.11 2.17 2.28 2.40 2.45 2.55 2.74 3.00 3.13 3.24
0.62 1.07 1.43 1.43 1.34 0.99 0.48 0.71 0.82 0.61 0.48 0.42 0.43 0.43 0.39 0.42 0.48 0.49 0.62 0.78 0.86 0.91 1.04 1.22 1.30 1.51 1.63 1.70 1.84 2.00 2.03 2.04 2.06 2.05 2.07 1.98 1.92 1.90 1.96 2.04 2.12 2.25 2.33 2.39 2.51 2.65 2.72 2.86 3.13
0.57 0.89 1.43 1.53 1.28 0.93 0.66 0.97 0.88 0.63 0.49 0.45 0.45 0.44 0.47 0.55 0.66 0.76 0.91 1.00 1.08 1.12 1.12 1.19 1.34 1.38 1.40 1.47 1.49 1.58 1.64 1.69 1.74 1.72 1.73 1.78 1.80 1.81 1.75 1.79 1.87 2.09 2.27 2.36 2.45 2.46 2.46 2.53 2.74
0.59 0.65 0.73 1.03 0.94 0.98 0.92 1.11 1.02 0.64 0.51 0.50 0.50 0.50 0.56 0.70 0.91 1.17 1.37 1.47 1.54 1.48 1.32 1.20 1.24 1.26 1.24 1.33 1.38 1.42 1.48 1.51 1.53 1.55 1.47 1.59 1.61 1.60 1.54 1.58 1.61 1.73 1.94 2.18 2.34 2.31 2.25 2.23 2.39
0.49 0.66 0.86 1.25 1.42 1.37 1.21 1.35 1.33 0.88 0.69 0.60 0.63 0.71 0.82 1.02 1.36 1.66 1.93 2.10 2.08 1.86 1.61 1.38 1.23 1.16 1.14 1.19 1.28 1.37 1.40 1.40 1.37 1.40 1.32 1.35 1.44 1.43 1.36 1.37 1.49 1.64 1.74 1.91 2.12 2.20 2.16 2.18 2.28
0.53 0.74 0.94 1.21 1.23 1.53 1.72 1.70 1.38 1.15 0.95 0.88 0.97 1.15 1.33 1.58 1.83 2.02 2.19 2.31 2.12 1.93 1.66 1.39 1.22 1.21 1.24 1.29 1.34 1.35 1.30 1.29 1.27 1.22 1.16 1.20 1.28 1.27 1.25 1.39 1.48 1.56 1.65 1.82 2.06 2.20 2.22 2.17 2.19
0.64 0.92 1.19 1.64 1.51 1.40 1.72 1.81 1.27 1.08 1.05 1.07 1.18 1.27 1.41 1.54 1.57 1.70 1.80 1.81 1.85 1.81 1.63 1.44 1.31 1.29 1.34 1.41 1.46 1.40 1.32 1.27 1.24 1.20 1.11 1.09 1.05 1.03 1.14 1.27 1.30 1.35 1.37 1.57 1.86 2.06 2.11 2.11 2.01

GEFSSGP_prec_meanprecacc_378.txt.gz
Total_Precipitation_Accumulation
3.03 3.01 3.47 4.37 5.24 4.79 4.24 3.42 2.85 2.67 2.26 1.79 1.36 1.31 1.64 2.18 2.83 3.41 3.62 3.34 2.30 1.86 2.03 3.02 3.93 3.60 3.14 2.72 2.41 2.41 2.42 2.56 2.62 2.66 2.52 2.28 2.11 2.05 1.93 1.79 1.85 1.81 1.67 1.57 1.53 1.65 1.74 1.71 1.87
2.31 3.19 4.08 5.11 4.93 4.27 3.98 3.40 3.05 2.48 1.80 1.44 1.07 0.96 1.07 1.20 1.27 2.04 3.40 3.21 2.02 1.68 1.83 2.27 3.24 3.16 2.73 2.53 2.43 2.50 2.53 2.68 2.69 2.58 2.41 2.24 2.16 2.15 2.00 1.94 2.05 1.88 1.80 1.68 1.61 1.74 1.87 1.78 1.84
2.41 3.58 4.63 5.03 3.98 3.72 3.83 3.46 2.78 2.00 1.46 1.35 1.15 0.97 1.19 1.57 1.63 2.31 3.12 2.40 1.71 1.61 1.79 2.48 3.23 2.97 2.60 2.41 2.62 2.80 2.78 2.76 2.62 2.43 2.28 2.21 2.21 2.19 2.15 2.16 2.22 1.99 1.89 1.71 1.62 1.71 1.76 1.75 1.78
2.81 4.02 4.28 4.07 3.44 3.02 3.08 3.00 2.32 1.86 1.43 1.04 1.04 1.09 1.17 1.63 1.70 2.04 2.07 1.71 1.48 1.64 1.83 2.44 3.15 2.91 2.65 2.47 2.74 2.89 2.89 2.94 2.81 2.54 2.31 2.20 2.14 2.13 2.12 2.18 2.09 2.04 2.01 1.76 1.63 1.69 1.76 1.76 1.77
3.31 4.27 4.20 3.63 3.21 2.85 2.51 2.11 1.87 1.82 1.48 1.11 0.96 1.27 1.73 2.13 1.86 1.72 1.67 1.55 1.37 1.51 1.58 1.94 2.80 2.91 2.71 2.62 2.85 2.94 2.99 3.14 3.05 2.76 2.58 2.35 2.16 2.14 2.14 2.19 2.05 2.01 2.06 2.02 1.89 1.83 1.84 1.85 1.86
3.63 3.78 4.10 3.59 3.19 2.94 2.76 2.02 1.79 1.77 1.40 1.10 1.04 1.36 2.22 2.66 2.23 1.90 1.64 1.70 1.59 1.58 1.53 1.61 2.43 2.78 2.76 2.81 2.86 2.82 2.82 2.90 2.93 2.70 2.51 2.28 2.13 2.11 2.23 2.31 2.15 2.14 2.00 1.93 1.97 1.98 2.00 2.04 2.02
3.59 3.72 3.81 3.15 3.09 3.30 2.83 1.97 1.82 1.74 1.64 1.33 0.99 1.53 2.37 2.89 2.46 1.99 1.76 1.76 1.82 1.73 1.68 1.63 1.86 2.24 2.63 2.78 2.65 2.59 2.58 2.56 2.66 2.53 2.41 2.23 2.18 2.15 2.21 2.27 2.19 2.24 2.23 2.19 2.25 2.38 2.31 2.23 2.29
2.65 3.04 3.12 3.01 3.13 3.31 2.44 1.82 1.50 1.48 1.47 1.11 0.93 1.54 2.30 2.35 2.11 2.00 1.99 2.09 2.18 1.95 1.80 1.63 1.65 1.74 1.85 2.13 2.35 2.51 2.56 2.50 2.55 2.36 2.17 2.05 2.08 2.12 2.23 2.23 2.23 2.37 2.39 2.41 2.59 2.75 2.66 2.74 2.67
2.39 3.19 3.49 3.45 3.14 2.65 1.74 1.59 1.36 1.14 1.21 1.06 0.87 1.00 1.34 1.54 1.70 1.93 1.99 2.06 2.12 1.82 1.68 1.70 1.68 1.69 1.76 1.76 1.84 2.18 2.34 2.35 2.22 2.13 2.02 1.87 1.64 1.58 1.78 1.96 2.40 2.69 2.83 2.75 2.75 2.63 2.51 2.42 2.27
2.44 3.32 3.27 2.58 2.23 1.95 1.44 1.35 1.21 1.26 1.31 1.22 1.03 1.03 1.19 1.41 1.74 1.93 1.84 1.84 1.72 1.62 1.53 1.53 1.52 1.62 1.68 1.53 1.78 2.08 1.89 1.79 1.56 1.57 1.47 1.56 1.51 1.47 1.27 1.51 2.08 2.38 2.47 2.47 2.47 2.38 2.12 1.81 1.54
1.90 2.48 2.21 1.93 1.70 1.44 1.30 1.31 1.15 1.23 1.45 1.29 1.11 1.19 1.49 1.71 1.90 1.80 1.68 1.68 1.48 1.41 1.35 1.23 1.26 1.30 1.44 1.60 1.84 2.12 2.16 1.96 1.72 1.46 1.38 1.45 1.41 1.35 1.21 1.23 1.42 1.59 1.64 1.52 1.54 1.57 1.43 1.34 1.28
1.62 1.59 1.55 1.73 1.49 1.43 1.31 1.24 1.24 1.22 1.29 1.13 0.96 1.04 1.27 1.55 1.79 1.71 1.57 1.50 1.24 1.20 1.30 1.07 0.96 1.09 1.25 1.34 1.47 1.72 1.77 1.68 1.56 1.37 1.27 1.37 1.45 1.36 1.31 1.30 1.34 1.35 1.30 1.32 1.32 1.40 1.37 1.20 1.11
1.98 1.69 1.42 1.38 1.38 1.45 1.27 1.20 1.19 1.18 1.08 0.96 0.90 1.08 1.22 1.30 1.47 1.47 1.48 1.42 1.28 1.25 1.28 1.14 0.97 0.94 0.99 1.05 1.15 1.26 1.41 1.48 1.49 1.47 1.28 1.29 1.43 1.42 1.39 1.31 1.34 1.23 1.13 1.19 1.28 1.31 1.36 1.27 1.13
1.88 1.62 1.58 1.55 1.44 1.41 1.40 1.15 1.15 1.38 1.06 0.93 1.01 1.12 1.13 1.12 1.15 1.31 1.37 1.36 1.28 1.23 1.28 1.19 1.08 1.05 1.04 0.97 0.95 0.94 1.06 1.24 1.35 1.39 1.30 1.32 1.42 1.45 1.50 1.41 1.33 1.27 1.20 1.22 1.40 1.36 1.37 1.36 1.30
1.80 1.96 1.86 1.74 1.58 1.50 1.41 1.56 1.46 1.33 1.09 1.03 1.10 1.06 1.03 1.02 1.02 1.16 1.19 1.16 1.17 1.27 1.29 1.25 1.19 1.20 1.17 1.07 1.01 0.87 0.90 0.99 1.16 1.32 1.32 1.37 1.32 1.28 1.37 1.36 1.29 1.26 1.28 1.30 1.35 1.38 1.45 1.38 1.29
2.05 2.32 2.49 2.07 1.71 1.44 1.47 2.03 1.82 1.45 1.18 1.18 1.15 1.06 1.01 0.99 0.97 1.02 1.03 1.08 1.08 1.14 1.28 1.37 1.27 1.29 1.26 1.23 1.20 1.11 1.10 1.16 1.25 1.44 1.42 1.37 1.41 1.37 1.39 1.41 1.35 1.35 1.38 1.37 1.41 1.48 1.48 1.44 1.42
2.19 2.26 2.16 1.97 1.59 1.31 1.34 1.73 1.71 1.50 1.23 1.11 1.08 1.03 0.94 0.86 0.86 0.84 0.82 0.86 0.96 1.02 1.12 1.27 1.38 1.44 1.39 1.35 1.43 1.49 1.48 1.48 1.51 1.59 1.49 1.38 1.39 1.43 1.54 1.56 1.54 1.47 1.50 1.51 1.46 1.49 1.41 1.42 1.43
2.06 1.74 1.53 1.49 1.40 1.24 1.18 1.31 1.34 1.36 1.24 1.04 0.93 0.90 0.91 0.82 0.78 0.74 0.70 0.71 0.83 0.92 1.01 1.15 1.30 1.54 1.61 1.58 1.53 1.67 1.69 1.71 1.80 1.87 1.69 1.55 1.56 1.67 1.84 1.90 1.79 1.74 1.73 1.72 1.67 1.72 1.61 1.49 1.52
1.49 1.44 1.32 1.13 1.09 1.17 1.10 1.10 1.13 1.14 1.12 1.00 0.86 0.74 0.72 0.71 0.67 0.64 0.62 0.64 0.69 0.77 0.84 0.97 1.12 1.34 1.44 1.49 1.59 1.79 1.94 2.04 2.12 2.16 2.01 1.88 1.83 1.96 2.11 2.02 2.09 2.09 1.96 1.94 2.00 2.06 2.02 1.83 1.67
1.34 1.36 1.19 1.02 0.87 0.92 0.98 1.02 1.03 0.97 0.96 0.84 0.73 0.67 0.59 0.54 0.51 0.47 0.43 0.46 0.50 0.51 0.58 0.71 0.88 0.99 1.14 1.33 1.61 1.84 2.09 2.11 2.17 2.22 2.21 2.12 2.05 2.17 2.19 2.27 2.37 2.38 2.39 2.32 2.20 2.33 2.50 2.22 1.97
1.16 1.19 1.08 1.01 0.90 0.83 0.84 1.03 0.98 0.90 0.84 0.76 0.63 0.54 0.46 0.40 0.36 0.30 0.30 0.37 0.42 0.43 0.47 0.59 0.74 0.91 1.14 1.39 1.76 2.05 2.32 2.41 2.46 2.41 2.42 2.40 2.38 2.40 2.41 2.47 2.52 2.53 2.39 2.39 2.50 2.63 2.98 2.79 2.41
1.12 0.82 0.78 0.81 1.00 1.04 0.85 1.18 0.89 0.75 0.73 0.67 0.58 0.52 0.44 0.38 0.37 0.33 0.30 0.30 0.34 0.39 0.48 0.62 0.85 1.10 1.39 1.73 2.08 2.33 2.62 2.77 2.60 2.59 2.60 2.54 2.41 2.39 2.47 2.46 2.43 2.39 2.34 2.41 2.49 2.54 2.97 3.21 2.92
0.79 0.66 0.80 0.86 0.91 0.87 0.66 0.85 0.76 0.63 0.71 0.62 0.52 0.49 0.51 0.49 0.40 0.39 0.39 0.40 0.43 0.51 0.61 0.81 1.09 1.41 1.74 2.03 2.20 2.45 2.58 2.60 2.54 2.47 2.47 2.38 2.33 2.29 2.29 2.27 2.35 2.35 2.37 2.45 2.62 2.76 3.02 3.08 3.11
0.62 0.75 0.89 0.92 0.99 1.04 0.58 0.70 0.80 0.61 0.58 0.57 0.49 0.43 0.42 0.47 0.43 0.43 0.47 0.54 0.63 0.71 0.89 1.09 1.27 1.58 1.78 1.96 2.12 2.30 2.44 2.46 2.42 2.39 2.43 2.41 2.36 2.24 2.17 2.13 2.18 2.29 2.41 2.46 2.56 2.75 3.01 3.15 3.27
0.63 1.09 1.45 1.45 1.36 1.01 0.49 0.72 0.82 0.61 0.48 0.44 0.45 0.43 0.39 0.42 0.48 0.49 0.62 0.79 0.86 0.91 1.04 1.23 1.32 1.53 1.65 1.74 1.87 2.03 2.07 2.09 2.09 2.08 2.10 2.01 1.95 1.92 1.98 2.05 2.14 2.26 2.33 2.40 2.52 2.66 2.73 2.87 3.15
0.59 0.91 1.46 1.55 1.30 0.95 0.67 0.97 0.89 0.64 0.51 0.46 0.46 0.45 0.47 0.55 0.66 0.77 0.91 1.00 1.09 1.12 1.12 1.19 1.35 1.39 1.42 1.50 1.52 1.61 1.67 1.71 1.76 1.74 1.75 1.79 1.82 1.83 1.77 1.81 1.88 2.10 2.28 2.36 2.45 2.46 2.46 2.54 2.75
0.62 0.67 0.75 1.06 0.97 0.99 0.93 1.12 1.03 0.65 0.53 0.51 0.51 0.52 0.57 0.71 0.92 1.17 1.37 1.47 1.54 1.48 1.32 1.20 1.25 1.26 1.25 1.35 1.40 1.45 1.51 1.53 1.54 1.56 1.48 1.59 1.62 1.61 1.56 1.61 1.64 1.75 1.95 2.19 2.34 2.31 2.25 2.23 2.40
0.52 0.69 0.88 1.28 1.45 1.39 1.23 1.37 1.34 0.89 0.70 0.61 0.64 0.72 0.83 1.03 1.37 1.66 1.93 2.10 2.08 1.87 1.62 1.39 1.23 1.17 1.15 1.21 1.30 1.40 1.43 1.44 1.40 1.42 1.33 1.36 1.45 1.45 1.38 1.40 1.52 1.67 1.76 1.92 2.12 2.20 2.16 2.19 2.28
0.55 0.76 0.96 1.24 1.26 1.56 1.74 1.72 1.40 1.17 0.96 0.89 0.97 1.16 1.34 1.59 1.84 2.04 2.21 2.33 2.12 1.93 1.66 1.40 1.22 1.22 1.25 1.30 1.35 1.38 1.33 1.32 1.30 1.25 1.19 1.22 1.29 1.29 1.27 1.41 1.51 1.58 1.67 1.83 2.06 2.21 2.22 2.17 2.19
0.67 0.95 1.22 1.67 1.53 1.42 1.74 1.83 1.29 1.10 1.06 1.07 1.18 1.27 1.41 1.54 1.58 1.73 1.84 1.84 1.87 1.82 1.63 1.44 1.31 1.30 1.35 1.41 1.46 1.41 1.35 1.30 1.27 1.23 1.15 1.12 1.08 1.05 1.15 1.28 1.32 1.36 1.38 1.58 1.87 2.06 2.12 2.11 2.02

GEFSSGP_prec_meanprecacc_384.txt.gz
Total_Precipitation_Accumulation
3.03 3.01 3.47 4.37 5.25 4.80 4.24 3.42 2.86 2.68 2.28 1.80 1.37 1.31 1.65 2.18 2.84 3.42 3.64 3.36 2.33 1.88 2.05 3.07 3.98 3.64 3.18 2.76 2.43 2.43 2.44 2.57 2.64 2.68 2.55 2.32 2.14 2.08 1.96 1.83 1.89 1.84 1.71 1.60 1.58 1.68 1.76 1.73 1.90
2.31 3.19 4.09 5.12 4.94 4.27 3.98 3.40 3.06 2.50 1.81 1.46 1.08 0.96 1.07 1.20 1.28 2.06 3.42 3.23 2.05 1.69 1.85 2.29 3.29 3.20 2.77 2.56 2.46 2.52 2.54 2.68 2.71 2.60 2.44 2.28 2.20 2.17 2.02 1.97 2.08 1.91 1.83 1.71 1.65 1.77 1.89 1.81 1.87
2.42 3.60 4.65 5.04 3.98 3.72 3.83 3.47 2.78 2.01 1.46 1.36 1.16 0.97 1.20 1.58 1.64 2.32 3.14 2.41 1.74 1.63 1.81 2.50 3.27 3.02 2.64 2.44 2.65 2.81 2.78 2.77 2.63 2.45 2.31 2.25 2.24 2.21 2.18 2.19 2.25 2.02 1.92 1.74 1.64 1.74 1.79 1.77 1.80
2.82 4.04 4.29 4.08 3.45 3.02 3.08 3.00 2.32 1.87 1.43 1.04 1.05 1.09 1.18 1.63 1.71 2.05 2.09 1.73 1.50 1.65 1.84 2.46 3.19 2.95 2.69 2.51 2.78 2.90 2.90 2.95 2.82 2.55 2.33 2.24 2.17 2.16 2.15 2.21 2.12 2.08 2.05 1.80 1.65 1.71 1.79 1.79 1.80
3.33 4.28 4.21 3.63 3.21 2.85 2.52 2.12 1.88 1.82 1.48 1.11 0.96 1.28 1.74 2.14 1.87 1.74 1.69 1.58 1.40 1.52 1.58 1.95 2.83 2.94 2.74 2.67 2.89 2.96 3.01 3.16 3.07 2.78 2.59 2.37 2.19 2.17 2.17 2.23 2.09 2.06 2.11 2.08 1.93 1.86 1.87 1.88 1.89
3.64 3.78 4.10 3.59 3.19 2.95 2.76 2.03 1.79 1.78 1.40 1.10 1.04 1.36 2.23 2.67 2.24 1.91 1.67 1.73 1.63 1.60 1.54 1.64 2.47 2.81 2.80 2.85 2.90 2.85 2.84 2.93 2.96 2.72 2.54 2.30 2.17 2.15 2.27 2.34 2.20 2.19 2.06 1.98 2.01 2.03 2.05 2.08 2.07
3.59 3.73 3.82 3.15 3.10 3.31 2.84 1.97 1.82 1.74 1.64 1.33 0.99 1.53 2.38 2.90 2.47 2.00 1.79 1.81 1.86 1.75 1.70 1.66 1.89 2.26 2.66 2.81 2.69 2.61 2.59 2.59 2.69 2.54 2.43 2.26 2.21 2.19 2.25 2.30 2.23 2.28 2.27 2.24 2.30 2.43 2.37 2.27 2.34
2.66 3.04 3.12 3.02 3.14 3.32 2.45 1.82 1.50 1.49 1.47 1.11 0.94 1.55 2.31 2.35 2.11 2.02 2.02 2.13 2.21 1.97 1.81 1.64 1.66 1.75 1.87 2.16 2.38 2.54 2.58 2.53 2.57 2.38 2.19 2.07 2.11 2.16 2.26 2.26 2.26 2.40 2.42 2.45 2.64 2.80 2.70 2.78 2.71
2.39 3.19 3.49 3.46 3.15 2.66 1.75 1.59 1.36 1.14 1.22 1.06 0.87 1.00 1.34 1.54 1.70 1.95 2.02 2.10 2.15 1.84 1.69 1.71 1.69 1.69 1.77 1.80 1.88 2.21 2.38 2.39 2.25 2.14 2.04 1.88 1.65 1.60 1.81 1.99 2.44 2.73 2.87 2.78 2.78 2.66 2.54 2.45 2.31
2.44 3.32 3.27 2.58 2.24 1.96 1.45 1.35 1.22 1.26 1.32 1.22 1.03 1.03 1.19 1.41 1.75 1.95 1.86 1.86 1.73 1.63 1.54 1.53 1.52 1.63 1.69 1.55 1.80 2.09 1.90 1.81 1.58 1.58 1.48 1.57 1.51 1.48 1.29 1.55 2.12 2.42 2.50 2.49 2.48 2.39 2.14 1.83 1.55
1.91 2.48 2.22 1.94 1.71 1.46 1.31 1.32 1.16 1.24 1.45 1.29 1.12 1.19 1.50 1.72 1.92 1.82 1.70 1.70 1.50 1.42 1.37 1.24 1.26 1.31 1.45 1.60 1.85 2.13 2.17 1.98 1.73 1.47 1.38 1.45 1.41 1.35 1.21 1.24 1.44 1.61 1.66 1.53 1.55 1.57 1.44 1.35 1.29
1.62 1.59 1.55 1.74 1.49 1.44 1.32 1.25 1.24 1.23 1.29 1.13 0.96 1.04 1.28 1.57 1.80 1.73 1.59 1.53 1.26 1.23 1.32 1.08 0.96 1.09 1.25 1.35 1.48 1.72 1.77 1.69 1.57 1.38 1.28 1.38 1.45 1.36 1.31 1.30 1.35 1.36 1.32 1.33 1.33 1.42 1.38 1.20 1.12
1.98 1.69 1.42 1.38 1.38 1.45 1.27 1.20 1.19 1.19 1.08 0.96 0.90 1.08 1.23 1.32 1.48 1.49 1.49 1.44 1.31 1.28 1.31 1.16 0.99 0.95 1.00 1.07 1.15 1.26 1.42 1.48 1.50 1.47 1.29 1.30 1.44 1.43 1.40 1.32 1.35 1.24 1.15 1.20 1.30 1.33 1.38 1.28 1.14
1.88 1.62 1.58 1.55 1.44 1.41 1.40 1.15 1.15 1.39 1.06 0.93 1.01 1.13 1.13 1.13 1.16 1.32 1.38 1.37 1.29 1.25 1.31 1.22 1.10 1.08 1.06 0.98 0.95 0.94 1.06 1.24 1.35 1.39 1.30 1.32 1.42 1.45 1.50 1.41 1.33 1.27 1.21 1.24 1.42 1.38 1.40 1.38 1.31
1.80 1.96 1.86 1.74 1.58 1.50 1.41 1.56 1.46 1.33 1.09 1.03 1.11 1.07 1.04 1.03 1.03 1.17 1.19 1.17 1.18 1.28 1.31 1.28 1.23 1.24 1.20 1.10 1.03 0.87 0.90 1.00 1.16 1.32 1.32 1.37 1.33 1.28 1.37 1.37 1.29 1.26 1.29 1.32 1.36 1.39 1.46 1.38 1.29
2.05 2.32 2.49 2.07 1.71 1.44 1.47 2.03 1.82 1.45 1.19 1.19 1.15 1.06 1.02 1.00 0.98 1.02 1.04 1.09 1.09 1.16 1.30 1.41 1.31 1.33 1.29 1.26 1.22 1.13 1.10 1.16 1.25 1.44 1.42 1.38 1.41 1.37 1.40 1.42 1.37 1.35 1.39 1.38 1.42 1.49 1.48 1.44 1.42
2.20 2.26 2.16 1.98 1.59 1.32 1.35 1.74 1.71 1.50 1.24 1.11 1.09 1.04 0.95 0.86 0.86 0.84 0.82 0.87 0.98 1.04 1.15 1.30 1.42 1.48 1.42 1.39 1.47 1.53 1.50 1.49 1.52 1.61 1.51 1.39 1.39 1.43 1.54 1.57 1.55 1.48 1.50 1.51 1.46 1.50 1.42 1.42 1.43
2.06 1.74 1.53 1.49 1.40 1.25 1.19 1.31 1.34 1.37 1.24 1.05 0.94 0.91 0.92 0.83 0.79 0.75 0.71 0.73 0.85 0.95 1.03 1.18 1.33 1.57 1.64 1.61 1.57 1.71 1.71 1.72 1.81 1.88 1.71 1.57 1.59 1.69 1.85 1.91 1.80 1.75 1.74 1.73 1.68 1.73 1.63 1.50 1.53
1.50 1.45 1.32 1.13 1.09 1.18 1.11 1.11 1.13 1.14 1.13 1.00 0.87 0.75 0.73 0.72 0.68 0.65 0.63 0.65 0.70 0.78 0.86 1.00 1.15 1.36 1.47 1.52 1.62 1.83 1.97 2.06 2.13 2.17 2.02 1.90 1.86 1.99 2.12 2.03 2.10 2.10 1.97 1.95 2.01 2.07 2.04 1.85 1.68
1.35 1.38 1.20 1.03 0.87 0.93 0.99 1.02 1.03 0.98 0.96 0.85 0.74 0.68 0.61 0.55 0.53 0.49 0.44 0.47 0.51 0.53 0.60 0.73 0.90 1.02 1.16 1.36 1.65 1.89 2.14 2.15 2.19 2.24 2.22 2.14 2.06 2.18 2.21 2.28 2.38 2.40 2.40 2.33 2.22 2.34 2.51 2.23 1.98
1.17 1.21 1.09 1.02 0.91 0.84 0.85 1.03 0.99 0.91 0.84 0.77 0.64 0.55 0.47 0.41 0.38 0.32 0.31 0.38 0.44 0.44 0.49 0.61 0.76 0.93 1.17 1.42 1.80 2.09 2.37 2.45 2.50 2.45 2.44 2.41 2.39 2.41 2.43 2.48 2.53 2.54 2.41 2.40 2.51 2.64 2.99 2.80 2.42
1.13 0.83 0.79 0.82 1.01 1.05 0.86 1.18 0.89 0.75 0.74 0.67 0.59 0.53 0.46 0.40 0.38 0.34 0.31 0.32 0.35 0.41 0.50 0.64 0.87 1.12 1.42 1.76 2.12 2.39 2.67 2.82 2.64 2.63 2.63 2.56 2.44 2.40 2.47 2.46 2.43 2.40 2.35 2.42 2.49 2.55 2.98 3.22 2.93
0.79 0.67 0.81 0.88 0.93 0.88 0.67 0.85 0.76 0.63 0.72 0.62 0.52 0.50 0.53 0.51 0.42 0.40 0.40 0.41 0.45 0.53 0.63 0.82 1.10 1.43 1.77 2.06 2.25 2.52 2.64 2.66 2.59 2.52 2.51 2.41 2.36 2.30 2.30 2.27 2.35 2.36 2.39 2.46 2.63 2.77 3.03 3.08 3.11
0.62 0.75 0.90 0.94 1.01 1.05 0.58 0.70 0.80 0.61 0.58 0.57 0.49 0.43 0.43 0.48 0.44 0.44 0.48 0.56 0.64 0.72 0.89 1.10 1.28 1.59 1.80 1.98 2.15 2.35 2.50 2.52 2.47 2.43 2.45 2.44 2.38 2.26 2.18 2.13 2.19 2.31 2.42 2.47 2.57 2.76 3.02 3.15 3.27
0.64 1.09 1.46 1.47 1.37 1.02 0.49 0.72 0.83 0.61 0.49 0.44 0.45 0.43 0.40 0.43 0.49 0.51 0.63 0.81 0.88 0.93 1.05 1.24 1.33 1.54 1.67 1.76 1.89 2.05 2.10 2.13 2.13 2.12 2.12 2.03 1.97 1.94 1.99 2.06 2.15 2.27 2.34 2.41 2.53 2.67 2.73 2.88 3.16
0.60 0.91 1.47 1.57 1.32 0.95 0.68 0.98 0.89 0.65 0.51 0.46 0.47 0.46 0.48 0.56 0.67 0.77 0.92 1.02 1.11 1.15 1.14 1.20 1.36 1.40 1.43 1.51 1.53 1.63 1.69 1.74 1.79 1.77 1.77 1.81 1.84 1.85 1.79 1.82 1.89 2.11 2.30 2.38 2.46 2.48 2.47 2.54 2.76
0.63 0.68 0.75 1.07 0.99 1.01 0.94 1.12 1.04 0.66 0.54 0.52 0.52 0.52 0.57 0.71 0.92 1.17 1.38 1.48 1.55 1.50 1.34 1.22 1.25 1.27 1.26 1.36 1.42 1.46 1.52 1.56 1.58 1.60 1.51 1.62 1.64 1.63 1.58 1.62 1.66 1.77 1.97 2.21 2.36 2.33 2.26 2.24 2.40
0.53 0.70 0.89 1.30 1.47 1.41 1.23 1.39 1.36 0.90 0.71 0.63 0.65 0.73 0.84 1.04 1.37 1.68 1.95 2.12 2.09 1.88 1.63 1.40 1.24 1.17 1.16 1.21 1.31 1.41 1.44 1.46 1.43 1.47 1.38 1.39 1.48 1.48 1.41 1.42 1.54 1.68 1.77 1.94 2.14 2.21 2.17 2.19 2.28
0.56 0.76 0.98 1.25 1.28 1.58 1.75 1.73 1.42 1.19 0.98 0.91 0.98 1.16 1.34 1.60 1.84 2.05 2.23 2.34 2.14 1.95 1.67 1.40 1.22 1.22 1.25 1.30 1.36 1.38 1.33 1.33 1.32 1.28 1.23 1.27 1.35 1.34 1.31 1.44 1.53 1.59 1.68 1.85 2.07 2.22 2.23 2.18 2.20
0.67 0.96 1.23 1.68 1.55 1.44 1.75 1.83 1.30 1.11 1.07 1.09 1.19 1.27 1.41 1.55 1.59 1.73 1.84 1.85 1.89 1.84 1.65 1.45 1.31 1.30 1.35 1.41 1.47 1.41 1.35 1.30 1.28 1.25 1.17 1.15 1.12 1.11 1.21 1.33 1.36 1.39 1.42 1.61 1.89 2.08 2.13 2.13 2.02